Wetterdaten: Samstag, 15.11.2025
Datum Zeit Temp. Aussen Temp. o. S. Temp +5cm Feuchte Auss Luftdruck Regen Sonnenschein Regendauer Solar Windböen Empfang
15.11.2025 00:00 14,0 °C 13,3 °C 9,4 °C 81 % 1007,1 hPa 0,0 l/m² 0 min 0 min 0 W/m² 16,1 km/h (3 Bft) 95,45 %
15.11.2025 00:02 14,0 °C 13,3 °C 9,4 °C 81 % 1007,1 hPa 0,0 l/m² 0 min 0 min 0 W/m² 16,1 km/h (3 Bft) 97,67 %
15.11.2025 00:04 14,0 °C 13,3 °C 9,4 °C 81 % 1007,2 hPa 0,0 l/m² 0 min 0 min 0 W/m² 9,7 km/h (2 Bft) 100,00 %
15.11.2025 00:07 14,1 °C 13,3 °C 9,4 °C 81 % 1007,2 hPa 0,0 l/m² 0 min 0 min 0 W/m² 12,9 km/h (3 Bft) 98,65 %
15.11.2025 00:08 14,1 °C 13,3 °C 9,4 °C 81 % 1007,2 hPa 0,0 l/m² 0 min 0 min 0 W/m² 6,4 km/h (2 Bft) 98,77 %
15.11.2025 00:12 14,1 °C 13,3 °C 9,4 °C 81 % 1007,3 hPa 0,0 l/m² 0 min 0 min 0 W/m² 9,7 km/h (2 Bft) 96,30 %
15.11.2025 00:14 14,1 °C 13,3 °C 9,4 °C 81 % 1007,3 hPa 0,0 l/m² 0 min 0 min 0 W/m² 16,1 km/h (3 Bft) 100,00 %
15.11.2025 00:16 14,1 °C 13,3 °C 9,4 °C 81 % 1007,3 hPa 0,0 l/m² 0 min 0 min 0 W/m² 12,9 km/h (3 Bft) 100,00 %
15.11.2025 00:18 14,1 °C 13,3 °C 9,4 °C 81 % 1007,3 hPa 0,0 l/m² 0 min 0 min 0 W/m² 16,1 km/h (3 Bft) 100,00 %
15.11.2025 00:20 14,1 °C 12,8 °C 9,4 °C 82 % 1007,3 hPa 0,0 l/m² 0 min 0 min 0 W/m² 9,7 km/h (2 Bft) 100,00 %
15.11.2025 00:22 14,1 °C 12,8 °C 8,9 °C 82 % 1007,3 hPa 0,0 l/m² 0 min 0 min 0 W/m² 6,4 km/h (2 Bft) 98,31 %
15.11.2025 00:24 14,1 °C 12,8 °C 8,9 °C 82 % 1007,3 hPa 0,0 l/m² 0 min 0 min 0 W/m² 9,7 km/h (2 Bft) 100,00 %
15.11.2025 00:26 14,1 °C 12,8 °C 8,9 °C 82 % 1007,3 hPa 0,0 l/m² 0 min 0 min 0 W/m² 12,9 km/h (3 Bft) 97,67 %
15.11.2025 00:28 14,0 °C 12,8 °C 8,9 °C 82 % 1007,3 hPa 0,0 l/m² 0 min 0 min 0 W/m² 19,3 km/h (3 Bft) 97,50 %
15.11.2025 00:30 14,0 °C 12,8 °C 8,9 °C 82 % 1007,3 hPa 0,0 l/m² 0 min 0 min 0 W/m² 16,1 km/h (3 Bft) 95,74 %
15.11.2025 00:32 14,0 °C 12,8 °C 8,9 °C 82 % 1007,3 hPa 0,0 l/m² 0 min 0 min 0 W/m² 9,7 km/h (2 Bft) 98,28 %
15.11.2025 00:34 13,9 °C 12,8 °C 8,9 °C 82 % 1007,3 hPa 0,0 l/m² 0 min 0 min 0 W/m² 12,9 km/h (3 Bft) 95,45 %
15.11.2025 00:36 13,9 °C 12,8 °C 8,9 °C 82 % 1007,3 hPa 0,0 l/m² 0 min 0 min 0 W/m² 6,4 km/h (2 Bft) 95,45 %
15.11.2025 00:38 13,9 °C 12,8 °C 8,9 °C 82 % 1007,3 hPa 0,0 l/m² 0 min 0 min 0 W/m² 16,1 km/h (3 Bft) 95,12 %
15.11.2025 00:40 13,9 °C 12,8 °C 8,9 °C 82 % 1007,3 hPa 0,0 l/m² 0 min 0 min 0 W/m² 12,9 km/h (3 Bft) 93,62 %
15.11.2025 00:42 13,9 °C 12,8 °C 8,9 °C 82 % 1007,3 hPa 0,0 l/m² 0 min 0 min 0 W/m² 6,4 km/h (2 Bft) 93,62 %
15.11.2025 00:44 13,9 °C 12,8 °C 8,9 °C 82 % 1007,3 hPa 0,0 l/m² 0 min 0 min 0 W/m² 6,4 km/h (2 Bft) 96,49 %
15.11.2025 00:46 13,9 °C 12,8 °C 8,9 °C 82 % 1007,3 hPa 0,0 l/m² 0 min 0 min 0 W/m² 6,4 km/h (2 Bft) 95,35 %
15.11.2025 00:48 13,8 °C 12,8 °C 8,9 °C 83 % 1007,3 hPa 0,0 l/m² 0 min 0 min 0 W/m² 6,4 km/h (2 Bft) 95,12 %
15.11.2025 00:50 13,8 °C 12,8 °C 8,9 °C 83 % 1007,3 hPa 0,0 l/m² 0 min 0 min 0 W/m² 6,4 km/h (2 Bft) 91,49 %
15.11.2025 00:52 13,8 °C 12,8 °C 8,9 °C 83 % 1007,3 hPa 0,0 l/m² 0 min 0 min 0 W/m² 6,4 km/h (2 Bft) 95,65 %
15.11.2025 00:54 13,8 °C 12,8 °C 8,9 °C 83 % 1007,3 hPa 0,0 l/m² 0 min 0 min 0 W/m² 6,4 km/h (2 Bft) 94,83 %
15.11.2025 00:56 13,8 °C 12,8 °C 8,9 °C 83 % 1007,2 hPa 0,0 l/m² 0 min 0 min 0 W/m² 6,4 km/h (2 Bft) 95,35 %
15.11.2025 00:58 13,8 °C 12,8 °C 8,9 °C 83 % 1007,2 hPa 0,0 l/m² 0 min 0 min 0 W/m² 6,4 km/h (2 Bft) 95,00 %
15.11.2025 01:00 13,8 °C 12,8 °C 8,9 °C 83 % 1007,2 hPa 0,0 l/m² 0 min 0 min 0 W/m² 12,9 km/h (3 Bft) 93,62 %
15.11.2025 01:02 13,8 °C 12,8 °C 8,9 °C 83 % 1007,2 hPa 0,0 l/m² 0 min 0 min 0 W/m² 6,4 km/h (2 Bft) 94,83 %
15.11.2025 01:04 13,8 °C 12,8 °C 8,9 °C 83 % 1007,1 hPa 0,0 l/m² 0 min 0 min 0 W/m² 6,4 km/h (2 Bft) 93,18 %
15.11.2025 01:06 13,7 °C 12,8 °C 8,9 °C 83 % 1007,1 hPa 0,0 l/m² 0 min 0 min 0 W/m² 3,2 km/h (1 Bft) 95,12 %
15.11.2025 01:08 13,7 °C 12,8 °C 8,9 °C 83 % 1007,0 hPa 0,0 l/m² 0 min 0 min 0 W/m² 3,2 km/h (1 Bft) 93,62 %
15.11.2025 01:10 13,7 °C 12,8 °C 8,9 °C 83 % 1007,0 hPa 0,0 l/m² 0 min 0 min 0 W/m² 3,2 km/h (1 Bft) 95,65 %
15.11.2025 01:12 13,7 °C 12,8 °C 8,9 °C 83 % 1007,0 hPa 0,0 l/m² 0 min 0 min 0 W/m² 6,4 km/h (2 Bft) 94,64 %
15.11.2025 01:14 13,7 °C 12,8 °C 8,9 °C 83 % 1007,0 hPa 0,0 l/m² 0 min 0 min 0 W/m² 0,0 km/h (0 Bft) 97,44 %
15.11.2025 01:16 13,7 °C 12,8 °C 8,9 °C 83 % 1007,0 hPa 0,0 l/m² 0 min 0 min 0 W/m² 0,0 km/h (0 Bft) 95,65 %
15.11.2025 01:18 13,7 °C 12,8 °C 8,9 °C 83 % 1007,0 hPa 0,0 l/m² 0 min 0 min 0 W/m² 0,0 km/h (0 Bft) 95,74 %
15.11.2025 01:20 13,7 °C 12,2 °C 8,9 °C 83 % 1007,0 hPa 0,0 l/m² 0 min 0 min 0 W/m² 0,0 km/h (0 Bft) 96,36 %
15.11.2025 01:22 13,6 °C 12,2 °C 8,3 °C 83 % 1007,1 hPa 0,0 l/m² 0 min 0 min 0 W/m² 0,0 km/h (0 Bft) 100,00 %
15.11.2025 01:24 13,6 °C 12,2 °C 8,3 °C 83 % 1007,1 hPa 0,0 l/m² 0 min 0 min 0 W/m² 0,0 km/h (0 Bft) 100,00 %
15.11.2025 01:26 13,6 °C 12,2 °C 8,3 °C 83 % 1007,1 hPa 0,0 l/m² 0 min 0 min 0 W/m² 0,0 km/h (0 Bft) 93,48 %
15.11.2025 01:28 13,6 °C 12,2 °C 8,3 °C 83 % 1007,1 hPa 0,0 l/m² 0 min 0 min 0 W/m² 0,0 km/h (0 Bft) 94,64 %
15.11.2025 01:30 13,6 °C 12,2 °C 8,3 °C 83 % 1007,2 hPa 0,0 l/m² 0 min 0 min 0 W/m² 0,0 km/h (0 Bft) 94,87 %
15.11.2025 01:32 13,6 °C 12,2 °C 8,3 °C 84 % 1007,1 hPa 0,0 l/m² 0 min 0 min 0 W/m² 0,0 km/h (0 Bft) 95,74 %
15.11.2025 01:34 13,6 °C 12,2 °C 8,3 °C 84 % 1007,1 hPa 0,0 l/m² 0 min 0 min 0 W/m² 0,0 km/h (0 Bft) 97,87 %
15.11.2025 01:36 13,6 °C 12,2 °C 8,3 °C 84 % 1007,2 hPa 0,0 l/m² 0 min 0 min 0 W/m² 3,2 km/h (1 Bft) 97,73 %
15.11.2025 01:38 13,6 °C 12,2 °C 8,3 °C 84 % 1007,2 hPa 0,0 l/m² 0 min 0 min 0 W/m² 3,2 km/h (1 Bft) 98,25 %
15.11.2025 01:40 13,5 °C 12,2 °C 8,3 °C 84 % 1007,2 hPa 0,0 l/m² 0 min 0 min 0 W/m² 3,2 km/h (1 Bft) 97,44 %
15.11.2025 01:42 13,5 °C 12,8 °C 8,3 °C 84 % 1007,2 hPa 0,0 l/m² 0 min 0 min 0 W/m² 3,2 km/h (1 Bft) 97,87 %
15.11.2025 01:44 13,5 °C 12,8 °C 8,3 °C 84 % 1007,2 hPa 0,0 l/m² 0 min 0 min 0 W/m² 6,4 km/h (2 Bft) 97,87 %
15.11.2025 01:46 13,5 °C 12,8 °C 8,3 °C 84 % 1007,2 hPa 0,0 l/m² 0 min 0 min 0 W/m² 6,4 km/h (2 Bft) 97,87 %
15.11.2025 01:48 13,4 °C 12,8 °C 8,3 °C 84 % 1007,2 hPa 0,0 l/m² 0 min 0 min 0 W/m² 6,4 km/h (2 Bft) 97,87 %
15.11.2025 01:50 13,4 °C 12,8 °C 8,9 °C 84 % 1007,2 hPa 0,0 l/m² 0 min 0 min 0 W/m² 12,9 km/h (3 Bft) 97,78 %
15.11.2025 01:52 13,4 °C 12,8 °C 8,9 °C 84 % 1007,3 hPa 0,0 l/m² 0 min 0 min 0 W/m² 9,7 km/h (2 Bft) 97,87 %
15.11.2025 01:54 13,4 °C 12,8 °C 8,9 °C 84 % 1007,3 hPa 0,0 l/m² 0 min 0 min 0 W/m² 6,4 km/h (2 Bft) 93,18 %
15.11.2025 01:56 13,4 °C 12,8 °C 8,9 °C 84 % 1007,2 hPa 0,0 l/m² 0 min 0 min 0 W/m² 9,7 km/h (2 Bft) 100,00 %
15.11.2025 01:58 13,4 °C 12,8 °C 8,9 °C 84 % 1007,1 hPa 0,0 l/m² 0 min 0 min 0 W/m² 12,9 km/h (3 Bft) 100,00 %
15.11.2025 02:00 13,5 °C 12,8 °C 8,9 °C 84 % 1007,1 hPa 0,0 l/m² 0 min 0 min 0 W/m² 6,4 km/h (2 Bft) 100,00 %
15.11.2025 02:02 13,5 °C 12,8 °C 8,9 °C 84 % 1007,2 hPa 0,0 l/m² 0 min 0 min 0 W/m² 3,2 km/h (1 Bft) 100,00 %
15.11.2025 02:04 13,4 °C 12,8 °C 8,9 °C 84 % 1007,1 hPa 0,0 l/m² 0 min 0 min 0 W/m² 6,4 km/h (2 Bft) 100,00 %
15.11.2025 02:08 13,4 °C 12,8 °C 8,9 °C 84 % 1007,2 hPa 0,0 l/m² 0 min 0 min 0 W/m² 6,4 km/h (2 Bft) 97,96 %
15.11.2025 02:10 13,5 °C 12,8 °C 8,9 °C 84 % 1007,3 hPa 0,0 l/m² 0 min 0 min 0 W/m² 16,1 km/h (3 Bft) 100,00 %
15.11.2025 02:14 13,5 °C 12,8 °C 8,9 °C 85 % 1007,3 hPa 0,0 l/m² 0 min 0 min 0 W/m² 9,7 km/h (2 Bft) 94,44 %
15.11.2025 02:16 13,5 °C 12,8 °C 8,9 °C 85 % 1007,3 hPa 0,0 l/m² 0 min 0 min 0 W/m² 6,4 km/h (2 Bft) 100,00 %
15.11.2025 02:18 13,6 °C 12,8 °C 8,9 °C 85 % 1007,4 hPa 0,0 l/m² 0 min 0 min 0 W/m² 6,4 km/h (2 Bft) 100,00 %
15.11.2025 02:20 13,6 °C 12,8 °C 8,9 °C 85 % 1007,4 hPa 0,0 l/m² 0 min 0 min 0 W/m² 6,4 km/h (2 Bft) 100,00 %
15.11.2025 02:22 13,6 °C 12,8 °C 8,9 °C 85 % 1007,5 hPa 0,0 l/m² 0 min 0 min 0 W/m² 6,4 km/h (2 Bft) 100,00 %
15.11.2025 02:24 13,6 °C 12,8 °C 8,9 °C 85 % 1007,5 hPa 0,0 l/m² 0 min 0 min 0 W/m² 6,4 km/h (2 Bft) 100,00 %
15.11.2025 02:26 13,6 °C 12,8 °C 8,9 °C 85 % 1007,5 hPa 0,0 l/m² 0 min 0 min 0 W/m² 3,2 km/h (1 Bft) 97,87 %
15.11.2025 02:28 13,6 °C 12,8 °C 8,9 °C 85 % 1007,5 hPa 0,0 l/m² 0 min 0 min 0 W/m² 3,2 km/h (1 Bft) 100,00 %
15.11.2025 02:30 13,6 °C 12,8 °C 8,9 °C 85 % 1007,5 hPa 0,0 l/m² 0 min 0 min 0 W/m² 6,4 km/h (2 Bft) 100,00 %
15.11.2025 02:32 13,6 °C 12,8 °C 8,9 °C 85 % 1007,5 hPa 0,0 l/m² 0 min 0 min 0 W/m² 6,4 km/h (2 Bft) 100,00 %
15.11.2025 02:34 13,6 °C 12,8 °C 8,9 °C 85 % 1007,6 hPa 0,0 l/m² 0 min 2 min 0 W/m² 6,4 km/h (2 Bft) 100,00 %
15.11.2025 02:36 13,6 °C 12,8 °C 8,9 °C 85 % 1007,6 hPa 0,0 l/m² 0 min 0 min 0 W/m² 0,0 km/h (0 Bft) 100,00 %
15.11.2025 02:38 13,6 °C 12,8 °C 8,9 °C 86 % 1007,6 hPa 0,0 l/m² 0 min 0 min 0 W/m² 0,0 km/h (0 Bft) 100,00 %
15.11.2025 02:40 13,6 °C 12,8 °C 8,9 °C 86 % 1007,6 hPa 0,0 l/m² 0 min 0 min 0 W/m² 0,0 km/h (0 Bft) 100,00 %
15.11.2025 02:42 13,6 °C 12,8 °C 8,9 °C 86 % 1007,7 hPa 0,0 l/m² 0 min 0 min 0 W/m² 3,2 km/h (1 Bft) 100,00 %
15.11.2025 02:44 13,6 °C 12,8 °C 8,9 °C 86 % 1007,7 hPa 0,0 l/m² 0 min 0 min 0 W/m² 3,2 km/h (1 Bft) 100,00 %
15.11.2025 02:46 13,6 °C 12,8 °C 8,9 °C 86 % 1007,7 hPa 0,0 l/m² 0 min 0 min 0 W/m² 9,7 km/h (2 Bft) 97,87 %
15.11.2025 02:48 13,6 °C 12,8 °C 8,9 °C 86 % 1007,7 hPa 0,0 l/m² 0 min 0 min 0 W/m² 3,2 km/h (1 Bft) 100,00 %
15.11.2025 02:50 13,6 °C 12,8 °C 8,9 °C 86 % 1007,7 hPa 0,0 l/m² 0 min 0 min 0 W/m² 3,2 km/h (1 Bft) 97,87 %
15.11.2025 02:52 13,6 °C 12,8 °C 8,3 °C 86 % 1007,8 hPa 0,0 l/m² 0 min 0 min 0 W/m² 3,2 km/h (1 Bft) 100,00 %
15.11.2025 02:54 13,6 °C 12,8 °C 8,3 °C 86 % 1007,8 hPa 0,0 l/m² 0 min 2 min 0 W/m² 6,4 km/h (2 Bft) 100,00 %
15.11.2025 02:56 13,6 °C 12,8 °C 8,3 °C 87 % 1007,9 hPa 0,0 l/m² 0 min 0 min 0 W/m² 16,1 km/h (3 Bft) 100,00 %
15.11.2025 02:58 13,6 °C 12,2 °C 8,3 °C 87 % 1007,9 hPa 0,0 l/m² 0 min 0 min 0 W/m² 6,4 km/h (2 Bft) 97,92 %
15.11.2025 03:00 13,6 °C 12,2 °C 8,3 °C 87 % 1008,0 hPa 0,0 l/m² 0 min 0 min 0 W/m² 9,7 km/h (2 Bft) 97,87 %
15.11.2025 03:02 13,6 °C 12,2 °C 7,8 °C 87 % 1008,0 hPa 0,0 l/m² 0 min 0 min 0 W/m² 3,2 km/h (1 Bft) 97,87 %
15.11.2025 03:04 13,5 °C 12,2 °C 7,8 °C 87 % 1008,0 hPa 0,0 l/m² 0 min 2 min 0 W/m² 6,4 km/h (2 Bft) 100,00 %
15.11.2025 03:08 13,4 °C 12,2 °C 7,8 °C 88 % 1008,0 hPa 0,2 l/m² 0 min 4 min 0 W/m² 12,9 km/h (3 Bft) 97,87 %
15.11.2025 03:10 13,4 °C 12,2 °C 7,8 °C 89 % 1007,9 hPa 0,0 l/m² 0 min 2 min 0 W/m² 12,9 km/h (3 Bft) 97,83 %
15.11.2025 03:12 13,4 °C 12,2 °C 7,8 °C 89 % 1008,0 hPa 0,2 l/m² 0 min 2 min 0 W/m² 6,4 km/h (2 Bft) 97,83 %
15.11.2025 03:14 13,4 °C 12,2 °C 7,8 °C 89 % 1008,0 hPa 0,0 l/m² 0 min 0 min 0 W/m² 3,2 km/h (1 Bft) 97,83 %
15.11.2025 03:16 13,4 °C 11,7 °C 7,8 °C 89 % 1008,0 hPa 0,0 l/m² 0 min 0 min 0 W/m² 3,2 km/h (1 Bft) 92,68 %
15.11.2025 03:18 13,4 °C 11,7 °C 7,8 °C 90 % 1008,0 hPa 0,0 l/m² 0 min 2 min 0 W/m² 6,4 km/h (2 Bft) 97,87 %
15.11.2025 03:20 13,3 °C 11,7 °C 7,8 °C 90 % 1008,0 hPa 0,2 l/m² 0 min 2 min 0 W/m² 3,2 km/h (1 Bft) 95,74 %
15.11.2025 03:22 13,3 °C 11,7 °C 7,8 °C 90 % 1008,0 hPa 0,2 l/m² 0 min 2 min 0 W/m² 3,2 km/h (1 Bft) 91,49 %
15.11.2025 03:24 13,3 °C 11,7 °C 7,8 °C 91 % 1008,0 hPa 0,2 l/m² 0 min 2 min 0 W/m² 3,2 km/h (1 Bft) 95,74 %
15.11.2025 03:26 13,2 °C 11,7 °C 7,8 °C 91 % 1008,0 hPa 0,0 l/m² 0 min 2 min 0 W/m² 6,4 km/h (2 Bft) 91,49 %
15.11.2025 03:28 13,2 °C 11,7 °C 7,8 °C 91 % 1008,1 hPa 0,2 l/m² 0 min 0 min 0 W/m² 3,2 km/h (1 Bft) 91,49 %
15.11.2025 03:30 13,2 °C 11,7 °C 7,8 °C 91 % 1008,1 hPa 0,0 l/m² 0 min 2 min 0 W/m² 3,2 km/h (1 Bft) 93,48 %
15.11.2025 03:32 13,2 °C 11,7 °C 7,8 °C 91 % 1008,0 hPa 0,0 l/m² 0 min 2 min 0 W/m² 3,2 km/h (1 Bft) 93,62 %
15.11.2025 03:34 13,2 °C 11,7 °C 7,8 °C 91 % 1008,0 hPa 0,2 l/m² 0 min 2 min 0 W/m² 0,0 km/h (0 Bft) 94,34 %
15.11.2025 03:36 13,2 °C 11,7 °C 7,8 °C 92 % 1008,0 hPa 0,0 l/m² 0 min 0 min 0 W/m² 0,0 km/h (0 Bft) 93,62 %
15.11.2025 03:38 13,1 °C 11,7 °C 7,8 °C 92 % 1008,1 hPa 0,2 l/m² 0 min 0 min 0 W/m² 3,2 km/h (1 Bft) 93,62 %
15.11.2025 03:40 13,1 °C 11,7 °C 7,8 °C 92 % 1008,1 hPa 0,0 l/m² 0 min 0 min 0 W/m² 3,2 km/h (1 Bft) 93,62 %
15.11.2025 03:42 13,1 °C 11,7 °C 7,8 °C 92 % 1008,0 hPa 0,0 l/m² 0 min 0 min 0 W/m² 3,2 km/h (1 Bft) 91,84 %
15.11.2025 03:44 13,1 °C 11,7 °C 7,8 °C 92 % 1008,0 hPa 0,0 l/m² 0 min 0 min 0 W/m² 0,0 km/h (0 Bft) 93,62 %
15.11.2025 03:46 13,1 °C 11,7 °C 7,8 °C 92 % 1008,0 hPa 0,0 l/m² 0 min 0 min 0 W/m² 0,0 km/h (0 Bft) 91,49 %
15.11.2025 03:48 13,1 °C 11,7 °C 7,8 °C 92 % 1008,0 hPa 0,0 l/m² 0 min 0 min 0 W/m² 0,0 km/h (0 Bft) 93,62 %
15.11.2025 03:50 13,1 °C 11,7 °C 7,8 °C 93 % 1008,0 hPa 0,0 l/m² 0 min 0 min 0 W/m² 0,0 km/h (0 Bft) 97,87 %
15.11.2025 03:52 13,1 °C 11,7 °C 7,8 °C 93 % 1008,0 hPa 0,0 l/m² 0 min 0 min 0 W/m² 0,0 km/h (0 Bft) 95,74 %
15.11.2025 03:54 13,1 °C 11,7 °C 7,8 °C 93 % 1008,0 hPa 0,0 l/m² 0 min 0 min 0 W/m² 0,0 km/h (0 Bft) 95,65 %
15.11.2025 03:56 13,0 °C 11,7 °C 7,8 °C 93 % 1008,0 hPa 0,0 l/m² 0 min 0 min 0 W/m² 0,0 km/h (0 Bft) 95,74 %
15.11.2025 03:58 12,9 °C 11,7 °C 7,8 °C 93 % 1008,0 hPa 0,0 l/m² 0 min 0 min 0 W/m² 0,0 km/h (0 Bft) 97,87 %
15.11.2025 04:00 12,9 °C 11,7 °C 7,8 °C 93 % 1008,0 hPa 0,0 l/m² 0 min 0 min 0 W/m² 0,0 km/h (0 Bft) 97,87 %
15.11.2025 04:02 12,9 °C 11,7 °C 7,8 °C 93 % 1008,0 hPa 0,0 l/m² 0 min 0 min 0 W/m² 0,0 km/h (0 Bft) 95,74 %
15.11.2025 04:04 12,9 °C 11,7 °C 7,8 °C 94 % 1008,0 hPa 0,0 l/m² 0 min 0 min 0 W/m² 0,0 km/h (0 Bft) 97,87 %
15.11.2025 04:08 12,9 °C 11,7 °C 7,8 °C 94 % 1008,1 hPa 0,0 l/m² 0 min 0 min 0 W/m² 0,0 km/h (0 Bft) 97,87 %
15.11.2025 04:10 12,9 °C 11,7 °C 7,8 °C 94 % 1008,0 hPa 0,0 l/m² 0 min 0 min 0 W/m² 0,0 km/h (0 Bft) 97,56 %
15.11.2025 04:12 12,9 °C 11,7 °C 7,8 °C 94 % 1008,0 hPa 0,0 l/m² 0 min 0 min 0 W/m² 0,0 km/h (0 Bft) 97,87 %
15.11.2025 04:14 12,8 °C 11,7 °C 7,8 °C 94 % 1008,0 hPa 0,0 l/m² 0 min 0 min 0 W/m² 0,0 km/h (0 Bft) 97,87 %
15.11.2025 04:16 12,8 °C 11,7 °C 7,8 °C 94 % 1008,0 hPa 0,2 l/m² 0 min 0 min 0 W/m² 0,0 km/h (0 Bft) 95,65 %
15.11.2025 04:18 12,8 °C 11,7 °C 7,8 °C 94 % 1008,0 hPa 0,0 l/m² 0 min 2 min 0 W/m² 0,0 km/h (0 Bft) 100,00 %
15.11.2025 04:20 12,8 °C 11,7 °C 7,8 °C 94 % 1008,0 hPa 0,0 l/m² 0 min 0 min 0 W/m² 0,0 km/h (0 Bft) 100,00 %
15.11.2025 04:22 12,8 °C 11,7 °C 7,8 °C 94 % 1008,0 hPa 0,0 l/m² 0 min 0 min 0 W/m² 0,0 km/h (0 Bft) 100,00 %
15.11.2025 04:24 12,8 °C 11,1 °C 7,8 °C 94 % 1008,0 hPa 0,0 l/m² 0 min 0 min 0 W/m² 0,0 km/h (0 Bft) 100,00 %
15.11.2025 04:26 12,8 °C 11,7 °C 7,8 °C 94 % 1008,0 hPa 0,0 l/m² 0 min 2 min 0 W/m² 0,0 km/h (0 Bft) 100,00 %
15.11.2025 04:28 12,7 °C 11,1 °C 7,8 °C 94 % 1008,0 hPa 0,2 l/m² 0 min 2 min 0 W/m² 0,0 km/h (0 Bft) 100,00 %
15.11.2025 04:30 12,7 °C 11,1 °C 7,8 °C 94 % 1008,1 hPa 0,0 l/m² 0 min 2 min 0 W/m² 0,0 km/h (0 Bft) 100,00 %
15.11.2025 04:32 12,7 °C 11,1 °C 7,8 °C 95 % 1008,1 hPa 0,0 l/m² 0 min 2 min 0 W/m² 0,0 km/h (0 Bft) 100,00 %
15.11.2025 04:34 12,7 °C 11,1 °C 7,8 °C 95 % 1008,1 hPa 0,0 l/m² 0 min 0 min 0 W/m² 0,0 km/h (0 Bft) 100,00 %
15.11.2025 04:36 12,7 °C 11,1 °C 7,8 °C 95 % 1008,0 hPa 0,2 l/m² 0 min 0 min 0 W/m² 0,0 km/h (0 Bft) 100,00 %
15.11.2025 04:38 12,6 °C 11,1 °C 7,2 °C 95 % 1008,0 hPa 0,0 l/m² 0 min 0 min 0 W/m² 0,0 km/h (0 Bft) 100,00 %
15.11.2025 04:40 12,6 °C 11,1 °C 7,2 °C 95 % 1008,0 hPa 0,0 l/m² 0 min 0 min 0 W/m² 0,0 km/h (0 Bft) 97,87 %
15.11.2025 04:42 12,6 °C 11,1 °C 7,2 °C 95 % 1008,1 hPa 0,0 l/m² 0 min 0 min 0 W/m² 0,0 km/h (0 Bft) 100,00 %
15.11.2025 04:44 12,6 °C 11,1 °C 7,2 °C 95 % 1008,1 hPa 0,0 l/m² 0 min 0 min 0 W/m² 0,0 km/h (0 Bft) 100,00 %
15.11.2025 04:46 12,6 °C 11,1 °C 7,2 °C 95 % 1008,0 hPa 0,0 l/m² 0 min 0 min 0 W/m² 0,0 km/h (0 Bft) 100,00 %
15.11.2025 04:48 12,6 °C 11,1 °C 7,2 °C 95 % 1008,0 hPa 0,0 l/m² 0 min 0 min 0 W/m² 0,0 km/h (0 Bft) 100,00 %
15.11.2025 04:50 12,6 °C 11,1 °C 7,2 °C 95 % 1008,0 hPa 0,0 l/m² 0 min 0 min 0 W/m² 0,0 km/h (0 Bft) 97,92 %
15.11.2025 04:52 12,6 °C 11,1 °C 7,2 °C 95 % 1008,1 hPa 0,0 l/m² 0 min 0 min 0 W/m² 0,0 km/h (0 Bft) 100,00 %
15.11.2025 04:54 12,5 °C 11,1 °C 7,2 °C 95 % 1008,1 hPa 0,0 l/m² 0 min 0 min 0 W/m² 0,0 km/h (0 Bft) 100,00 %
15.11.2025 04:56 12,5 °C 11,1 °C 7,2 °C 95 % 1008,1 hPa 0,0 l/m² 0 min 0 min 0 W/m² 0,0 km/h (0 Bft) 100,00 %
15.11.2025 04:58 12,4 °C 11,1 °C 7,2 °C 95 % 1008,1 hPa 0,0 l/m² 0 min 0 min 0 W/m² 0,0 km/h (0 Bft) 97,56 %
15.11.2025 05:00 12,4 °C 11,1 °C 7,2 °C 95 % 1008,1 hPa 0,0 l/m² 0 min 0 min 0 W/m² 0,0 km/h (0 Bft) 100,00 %
15.11.2025 05:02 12,4 °C 11,1 °C 7,2 °C 95 % 1008,2 hPa 0,0 l/m² 0 min 0 min 0 W/m² 0,0 km/h (0 Bft) 97,87 %
15.11.2025 05:04 12,4 °C 11,1 °C 7,2 °C 95 % 1008,2 hPa 0,2 l/m² 0 min 0 min 0 W/m² 0,0 km/h (0 Bft) 97,62 %
15.11.2025 05:08 12,4 °C 11,1 °C 7,2 °C 95 % 1008,2 hPa 0,0 l/m² 0 min 0 min 0 W/m² 0,0 km/h (0 Bft) 100,00 %
15.11.2025 05:10 12,4 °C 11,1 °C 7,2 °C 95 % 1008,2 hPa 0,0 l/m² 0 min 0 min 0 W/m² 0,0 km/h (0 Bft) 95,74 %
15.11.2025 05:12 12,4 °C 11,1 °C 7,2 °C 95 % 1008,2 hPa 0,0 l/m² 0 min 0 min 0 W/m² 0,0 km/h (0 Bft) 95,83 %
15.11.2025 05:14 12,4 °C 11,1 °C 7,2 °C 95 % 1008,2 hPa 0,0 l/m² 0 min 0 min 0 W/m² 0,0 km/h (0 Bft) 97,92 %
15.11.2025 05:16 12,3 °C 11,1 °C 7,2 °C 95 % 1008,2 hPa 0,0 l/m² 0 min 0 min 0 W/m² 0,0 km/h (0 Bft) 97,92 %
15.11.2025 05:18 12,3 °C 11,1 °C 7,2 °C 95 % 1008,2 hPa 0,0 l/m² 0 min 0 min 0 W/m² 0,0 km/h (0 Bft) 97,92 %
15.11.2025 05:20 12,3 °C 11,1 °C 7,2 °C 95 % 1008,2 hPa 0,0 l/m² 0 min 0 min 0 W/m² 0,0 km/h (0 Bft) 97,14 %
15.11.2025 05:22 12,3 °C 11,1 °C 7,2 °C 95 % 1008,2 hPa 0,0 l/m² 0 min 0 min 0 W/m² 0,0 km/h (0 Bft) 97,87 %
15.11.2025 05:24 12,3 °C 11,1 °C 7,2 °C 95 % 1008,2 hPa 0,0 l/m² 0 min 0 min 0 W/m² 0,0 km/h (0 Bft) 97,87 %
15.11.2025 05:26 12,3 °C 11,1 °C 7,2 °C 95 % 1008,2 hPa 0,0 l/m² 0 min 0 min 0 W/m² 0,0 km/h (0 Bft) 95,74 %
15.11.2025 05:28 12,3 °C 11,1 °C 7,2 °C 95 % 1008,2 hPa 0,0 l/m² 0 min 0 min 0 W/m² 0,0 km/h (0 Bft) 97,83 %
15.11.2025 05:30 12,3 °C 11,1 °C 7,2 °C 95 % 1008,2 hPa 0,0 l/m² 0 min 0 min 0 W/m² 0,0 km/h (0 Bft) 97,87 %
15.11.2025 05:32 12,2 °C 11,1 °C 7,2 °C 96 % 1008,2 hPa 0,0 l/m² 0 min 0 min 0 W/m² 0,0 km/h (0 Bft) 96,30 %
15.11.2025 05:34 12,2 °C 11,1 °C 7,2 °C 96 % 1008,2 hPa 0,0 l/m² 0 min 0 min 0 W/m² 0,0 km/h (0 Bft) 97,92 %
15.11.2025 05:36 12,2 °C 11,1 °C 7,2 °C 96 % 1008,2 hPa 0,0 l/m² 0 min 0 min 0 W/m² 0,0 km/h (0 Bft) 95,83 %
15.11.2025 05:38 12,2 °C 11,1 °C 7,2 °C 96 % 1008,2 hPa 0,0 l/m² 0 min 0 min 0 W/m² 0,0 km/h (0 Bft) 93,75 %
15.11.2025 05:40 12,2 °C 11,1 °C 7,2 °C 96 % 1008,2 hPa 0,0 l/m² 0 min 0 min 0 W/m² 0,0 km/h (0 Bft) 95,83 %
15.11.2025 05:42 12,2 °C 11,1 °C 7,2 °C 96 % 1008,2 hPa 0,0 l/m² 0 min 0 min 0 W/m² 0,0 km/h (0 Bft) 100,00 %
15.11.2025 05:44 12,2 °C 11,1 °C 7,2 °C 96 % 1008,2 hPa 0,0 l/m² 0 min 0 min 0 W/m² 0,0 km/h (0 Bft) 95,74 %
15.11.2025 05:46 12,2 °C 11,1 °C 7,2 °C 96 % 1008,2 hPa 0,0 l/m² 0 min 0 min 0 W/m² 0,0 km/h (0 Bft) 97,87 %
15.11.2025 05:48 12,2 °C 11,1 °C 7,2 °C 96 % 1008,2 hPa 0,0 l/m² 0 min 0 min 0 W/m² 0,0 km/h (0 Bft) 97,87 %
15.11.2025 05:50 12,1 °C 11,1 °C 7,2 °C 96 % 1008,2 hPa 0,0 l/m² 0 min 0 min 0 W/m² 0,0 km/h (0 Bft) 96,23 %
15.11.2025 05:52 12,1 °C 11,1 °C 7,2 °C 96 % 1008,2 hPa 0,0 l/m² 0 min 0 min 0 W/m² 0,0 km/h (0 Bft) 97,92 %
15.11.2025 05:54 12,1 °C 11,1 °C 7,2 °C 96 % 1008,2 hPa 0,0 l/m² 0 min 0 min 0 W/m² 0,0 km/h (0 Bft) 97,83 %
15.11.2025 05:56 12,1 °C 11,1 °C 7,2 °C 96 % 1008,2 hPa 0,0 l/m² 0 min 0 min 0 W/m² 0,0 km/h (0 Bft) 97,87 %
15.11.2025 05:58 12,1 °C 11,1 °C 7,2 °C 96 % 1008,3 hPa 0,0 l/m² 0 min 0 min 0 W/m² 0,0 km/h (0 Bft) 97,87 %
15.11.2025 06:00 12,1 °C 11,1 °C 7,2 °C 96 % 1008,3 hPa 0,0 l/m² 0 min 0 min 0 W/m² 0,0 km/h (0 Bft) 97,92 %
15.11.2025 06:02 12,1 °C 11,1 °C 7,2 °C 96 % 1008,3 hPa 0,0 l/m² 0 min 0 min 0 W/m² 0,0 km/h (0 Bft) 97,83 %
15.11.2025 06:04 12,1 °C 11,1 °C 7,2 °C 96 % 1008,3 hPa 0,0 l/m² 0 min 0 min 0 W/m² 0,0 km/h (0 Bft) 97,67 %
15.11.2025 06:08 12,1 °C 11,1 °C 7,2 °C 96 % 1008,4 hPa 0,0 l/m² 0 min 0 min 0 W/m² 0,0 km/h (0 Bft) 96,81 %
15.11.2025 06:10 12,1 °C 11,1 °C 7,2 °C 96 % 1008,5 hPa 0,0 l/m² 0 min 0 min 0 W/m² 0,0 km/h (0 Bft) 97,87 %
15.11.2025 06:12 12,0 °C 11,1 °C 7,2 °C 96 % 1008,5 hPa 0,0 l/m² 0 min 0 min 0 W/m² 0,0 km/h (0 Bft) 95,74 %
15.11.2025 06:16 12,0 °C 11,1 °C 7,2 °C 96 % 1008,5 hPa 0,0 l/m² 0 min 0 min 0 W/m² 0,0 km/h (0 Bft) 98,92 %
15.11.2025 06:18 12,0 °C 11,1 °C 7,2 °C 96 % 1008,5 hPa 0,0 l/m² 0 min 0 min 0 W/m² 0,0 km/h (0 Bft) 97,87 %
15.11.2025 06:20 12,0 °C 11,1 °C 7,2 °C 96 % 1008,4 hPa 0,0 l/m² 0 min 0 min 0 W/m² 0,0 km/h (0 Bft) 100,00 %
15.11.2025 06:22 11,9 °C 11,1 °C 7,2 °C 96 % 1008,4 hPa 0,0 l/m² 0 min 0 min 0 W/m² 0,0 km/h (0 Bft) 97,87 %
15.11.2025 06:24 11,9 °C 11,1 °C 7,2 °C 96 % 1008,4 hPa 0,0 l/m² 0 min 0 min 0 W/m² 0,0 km/h (0 Bft) 97,87 %
15.11.2025 06:26 11,9 °C 11,1 °C 7,2 °C 97 % 1008,4 hPa 0,0 l/m² 0 min 0 min 0 W/m² 0,0 km/h (0 Bft) 97,87 %
15.11.2025 06:28 11,9 °C 11,1 °C 7,2 °C 97 % 1008,4 hPa 0,0 l/m² 0 min 0 min 0 W/m² 0,0 km/h (0 Bft) 98,11 %
15.11.2025 06:30 11,9 °C 11,1 °C 7,2 °C 97 % 1008,4 hPa 0,0 l/m² 0 min 0 min 0 W/m² 0,0 km/h (0 Bft) 97,87 %
15.11.2025 06:32 11,9 °C 11,1 °C 7,2 °C 97 % 1008,4 hPa 0,0 l/m² 0 min 0 min 0 W/m² 0,0 km/h (0 Bft) 97,22 %
15.11.2025 06:34 11,9 °C 11,1 °C 7,2 °C 97 % 1008,4 hPa 0,0 l/m² 0 min 0 min 0 W/m² 0,0 km/h (0 Bft) 97,67 %
15.11.2025 06:36 11,9 °C 11,1 °C 7,2 °C 97 % 1008,4 hPa 0,0 l/m² 0 min 0 min 0 W/m² 0,0 km/h (0 Bft) 97,87 %
15.11.2025 06:38 11,9 °C 11,1 °C 7,2 °C 97 % 1008,4 hPa 0,0 l/m² 0 min 0 min 0 W/m² 0,0 km/h (0 Bft) 95,74 %
15.11.2025 06:40 11,9 °C 11,1 °C 7,2 °C 97 % 1008,4 hPa 0,0 l/m² 0 min 0 min 0 W/m² 0,0 km/h (0 Bft) 98,11 %
15.11.2025 06:42 11,9 °C 11,1 °C 7,2 °C 97 % 1008,5 hPa 0,0 l/m² 0 min 0 min 0 W/m² 0,0 km/h (0 Bft) 97,92 %
15.11.2025 06:44 11,9 °C 11,1 °C 7,2 °C 97 % 1008,4 hPa 0,0 l/m² 0 min 0 min 0 W/m² 0,0 km/h (0 Bft) 97,92 %
15.11.2025 06:46 11,9 °C 11,1 °C 7,2 °C 97 % 1008,5 hPa 0,0 l/m² 0 min 0 min 0 W/m² 0,0 km/h (0 Bft) 95,83 %
15.11.2025 06:48 11,9 °C 11,1 °C 7,2 °C 97 % 1008,5 hPa 0,0 l/m² 0 min 0 min 0 W/m² 0,0 km/h (0 Bft) 93,62 %
15.11.2025 06:50 11,9 °C 10,6 °C 7,2 °C 97 % 1008,5 hPa 0,0 l/m² 0 min 0 min 0 W/m² 0,0 km/h (0 Bft) 97,87 %
15.11.2025 06:52 11,9 °C 10,6 °C 7,2 °C 97 % 1008,5 hPa 0,0 l/m² 0 min 0 min 0 W/m² 0,0 km/h (0 Bft) 95,74 %
15.11.2025 06:54 11,9 °C 11,1 °C 7,2 °C 97 % 1008,6 hPa 0,0 l/m² 0 min 0 min 0 W/m² 0,0 km/h (0 Bft) 95,74 %
15.11.2025 06:56 11,9 °C 11,1 °C 7,2 °C 97 % 1008,6 hPa 0,0 l/m² 0 min 0 min 0 W/m² 0,0 km/h (0 Bft) 97,92 %
15.11.2025 06:58 11,9 °C 11,1 °C 7,2 °C 97 % 1008,6 hPa 0,0 l/m² 0 min 0 min 0 W/m² 0,0 km/h (0 Bft) 56,52 %
15.11.2025 07:00 11,9 °C 11,1 °C 7,2 °C 97 % 1008,6 hPa 0,0 l/m² 0 min 0 min 0 W/m² 0,0 km/h (0 Bft) 94,12 %
15.11.2025 07:02 11,9 °C 11,1 °C 7,2 °C 97 % 1008,7 hPa 0,0 l/m² 0 min 0 min 0 W/m² 0,0 km/h (0 Bft) 94,44 %
15.11.2025 07:04 11,9 °C 10,6 °C 7,2 °C 97 % 1008,7 hPa 0,0 l/m² 0 min 0 min 0 W/m² 0,0 km/h (0 Bft) 95,83 %
15.11.2025 07:08 11,9 °C 10,6 °C 7,2 °C 97 % 1008,7 hPa 0,0 l/m² 0 min 0 min 0 W/m² 0,0 km/h (0 Bft) 95,74 %
15.11.2025 07:10 11,9 °C 10,6 °C 7,2 °C 97 % 1008,7 hPa 0,0 l/m² 0 min 0 min 0 W/m² 0,0 km/h (0 Bft) 95,74 %
15.11.2025 07:12 11,9 °C 10,6 °C 7,2 °C 97 % 1008,7 hPa 0,0 l/m² 0 min 0 min 0 W/m² 0,0 km/h (0 Bft) 93,62 %
15.11.2025 07:14 11,9 °C 10,6 °C 7,2 °C 97 % 1008,7 hPa 0,0 l/m² 0 min 0 min 0 W/m² 0,0 km/h (0 Bft) 98,11 %
15.11.2025 07:16 11,9 °C 10,6 °C 7,2 °C 97 % 1008,7 hPa 0,0 l/m² 0 min 0 min 0 W/m² 0,0 km/h (0 Bft) 97,92 %
15.11.2025 07:18 11,9 °C 10,6 °C 7,2 °C 97 % 1008,7 hPa 0,0 l/m² 0 min 0 min 0 W/m² 0,0 km/h (0 Bft) 97,92 %
15.11.2025 07:20 11,9 °C 10,6 °C 7,2 °C 97 % 1008,7 hPa 0,0 l/m² 0 min 0 min 0 W/m² 0,0 km/h (0 Bft) 96,00 %
15.11.2025 07:22 11,9 °C 10,6 °C 7,2 °C 97 % 1008,8 hPa 0,0 l/m² 0 min 0 min 0 W/m² 0,0 km/h (0 Bft) 100,00 %
15.11.2025 07:24 11,8 °C 10,6 °C 7,2 °C 97 % 1008,7 hPa 0,0 l/m² 0 min 0 min 0 W/m² 0,0 km/h (0 Bft) 97,87 %
15.11.2025 07:26 11,8 °C 10,6 °C 7,2 °C 97 % 1008,7 hPa 0,0 l/m² 0 min 0 min 0 W/m² 0,0 km/h (0 Bft) 96,36 %
15.11.2025 07:28 11,8 °C 10,6 °C 7,2 °C 97 % 1008,7 hPa 0,0 l/m² 0 min 0 min 0 W/m² 0,0 km/h (0 Bft) 100,00 %
15.11.2025 07:30 11,8 °C 10,6 °C 7,2 °C 97 % 1008,8 hPa 0,0 l/m² 0 min 0 min 0 W/m² 0,0 km/h (0 Bft) 95,74 %
15.11.2025 07:32 11,8 °C 10,6 °C 7,2 °C 97 % 1008,7 hPa 0,0 l/m² 0 min 0 min 0 W/m² 0,0 km/h (0 Bft) 95,74 %
15.11.2025 07:34 11,8 °C 10,6 °C 7,2 °C 97 % 1008,8 hPa 0,0 l/m² 0 min 0 min 0 W/m² 0,0 km/h (0 Bft) 100,00 %
15.11.2025 07:36 11,8 °C 10,6 °C 7,2 °C 97 % 1008,8 hPa 0,0 l/m² 0 min 0 min 0 W/m² 0,0 km/h (0 Bft) 100,00 %
15.11.2025 07:38 11,8 °C 10,6 °C 7,2 °C 97 % 1008,8 hPa 0,0 l/m² 0 min 0 min 0 W/m² 0,0 km/h (0 Bft) 100,00 %
15.11.2025 07:40 11,8 °C 10,6 °C 7,2 °C 97 % 1008,9 hPa 0,0 l/m² 0 min 0 min 0 W/m² 0,0 km/h (0 Bft) 100,00 %
15.11.2025 07:42 11,8 °C 10,6 °C 7,2 °C 97 % 1008,9 hPa 0,0 l/m² 0 min 0 min 0 W/m² 0,0 km/h (0 Bft) 100,00 %
15.11.2025 07:44 11,8 °C 10,6 °C 7,2 °C 97 % 1009,0 hPa 0,0 l/m² 0 min 0 min 0 W/m² 0,0 km/h (0 Bft) 97,87 %
15.11.2025 07:46 11,8 °C 10,6 °C 7,2 °C 97 % 1009,0 hPa 0,0 l/m² 0 min 0 min 0 W/m² 0,0 km/h (0 Bft) 100,00 %
15.11.2025 07:48 11,8 °C 10,6 °C 7,2 °C 97 % 1009,0 hPa 0,0 l/m² 0 min 0 min 0 W/m² 0,0 km/h (0 Bft) 100,00 %
15.11.2025 07:50 11,8 °C 10,6 °C 7,2 °C 97 % 1009,1 hPa 0,0 l/m² 0 min 0 min 0 W/m² 0,0 km/h (0 Bft) 100,00 %
15.11.2025 07:52 11,8 °C 10,6 °C 7,2 °C 97 % 1009,1 hPa 0,0 l/m² 0 min 0 min 0 W/m² 0,0 km/h (0 Bft) 100,00 %
15.11.2025 07:54 11,8 °C 10,6 °C 7,2 °C 97 % 1009,2 hPa 0,0 l/m² 0 min 0 min 0 W/m² 0,0 km/h (0 Bft) 97,92 %
15.11.2025 07:56 11,8 °C 10,6 °C 7,2 °C 97 % 1009,2 hPa 0,0 l/m² 0 min 0 min 0 W/m² 0,0 km/h (0 Bft) 100,00 %
15.11.2025 07:58 11,8 °C 10,6 °C 7,2 °C 97 % 1009,2 hPa 0,0 l/m² 0 min 0 min 0 W/m² 0,0 km/h (0 Bft) 100,00 %
15.11.2025 08:00 11,8 °C 10,6 °C 7,2 °C 97 % 1009,2 hPa 0,0 l/m² 0 min 0 min 0 W/m² 0,0 km/h (0 Bft) 100,00 %
15.11.2025 08:02 11,8 °C 10,6 °C 7,2 °C 97 % 1009,2 hPa 0,0 l/m² 0 min 0 min 0 W/m² 0,0 km/h (0 Bft) 97,87 %
15.11.2025 08:04 11,8 °C 10,6 °C 7,2 °C 97 % 1009,1 hPa 0,0 l/m² 0 min 0 min 0 W/m² 0,0 km/h (0 Bft) 100,00 %
15.11.2025 08:05 11,8 °C 10,6 °C 7,2 °C 97 % 1009,2 hPa 0,0 l/m² 0 min 0 min 0 W/m² 0,0 km/h (0 Bft) 100,00 %
15.11.2025 08:08 11,8 °C 10,6 °C 7,2 °C 97 % 1009,1 hPa 0,0 l/m² 0 min 0 min 0 W/m² 0,0 km/h (0 Bft) 97,47 %
15.11.2025 08:10 11,8 °C 10,6 °C 7,2 °C 97 % 1009,1 hPa 0,0 l/m² 0 min 0 min 4 W/m² 0,0 km/h (0 Bft) 97,37 %
15.11.2025 08:12 11,8 °C 10,6 °C 7,2 °C 97 % 1009,0 hPa 0,0 l/m² 0 min 0 min 6 W/m² 0,0 km/h (0 Bft) 96,08 %
15.11.2025 08:14 11,8 °C 10,6 °C 7,2 °C 97 % 1009,0 hPa 0,0 l/m² 0 min 0 min 7 W/m² 0,0 km/h (0 Bft) 97,83 %
15.11.2025 08:16 11,8 °C 10,6 °C 7,2 °C 97 % 1009,0 hPa 0,0 l/m² 0 min 0 min 7 W/m² 0,0 km/h (0 Bft) 97,67 %
15.11.2025 08:18 11,8 °C 11,1 °C 7,2 °C 97 % 1009,1 hPa 0,0 l/m² 0 min 0 min 9 W/m² 0,0 km/h (0 Bft) 98,04 %
15.11.2025 08:20 11,8 °C 11,1 °C 7,2 °C 97 % 1009,0 hPa 0,0 l/m² 0 min 0 min 9 W/m² 0,0 km/h (0 Bft) 97,87 %
15.11.2025 08:22 11,8 °C 11,1 °C 7,2 °C 97 % 1009,1 hPa 0,0 l/m² 0 min 0 min 9 W/m² 0,0 km/h (0 Bft) 97,83 %
15.11.2025 08:24 11,8 °C 11,1 °C 7,2 °C 97 % 1009,1 hPa 0,0 l/m² 0 min 0 min 9 W/m² 3,2 km/h (1 Bft) 97,62 %
15.11.2025 08:26 11,9 °C 11,1 °C 7,2 °C 97 % 1009,1 hPa 0,0 l/m² 0 min 0 min 9 W/m² 0,0 km/h (0 Bft) 96,15 %
15.11.2025 08:28 11,9 °C 11,1 °C 7,2 °C 97 % 1009,1 hPa 0,0 l/m² 0 min 0 min 9 W/m² 0,0 km/h (0 Bft) 97,78 %
15.11.2025 08:30 11,9 °C 11,1 °C 7,2 °C 97 % 1009,1 hPa 0,0 l/m² 0 min 0 min 9 W/m² 0,0 km/h (0 Bft) 100,00 %
15.11.2025 08:32 11,9 °C 11,1 °C 7,2 °C 98 % 1009,1 hPa 0,0 l/m² 0 min 0 min 9 W/m² 0,0 km/h (0 Bft) 96,61 %
15.11.2025 08:34 11,9 °C 11,1 °C 7,2 °C 98 % 1009,1 hPa 0,0 l/m² 0 min 0 min 11 W/m² 0,0 km/h (0 Bft) 95,56 %
15.11.2025 08:36 11,9 °C 11,1 °C 7,2 °C 98 % 1009,1 hPa 0,0 l/m² 0 min 0 min 12 W/m² 0,0 km/h (0 Bft) 95,45 %
15.11.2025 08:38 11,9 °C 11,1 °C 7,2 °C 98 % 1009,1 hPa 0,0 l/m² 0 min 0 min 13 W/m² 0,0 km/h (0 Bft) 98,04 %
15.11.2025 08:40 11,9 °C 11,1 °C 7,2 °C 98 % 1009,1 hPa 0,0 l/m² 0 min 0 min 16 W/m² 0,0 km/h (0 Bft) 97,87 %
15.11.2025 08:42 11,9 °C 11,1 °C 7,2 °C 98 % 1009,1 hPa 0,0 l/m² 0 min 0 min 17 W/m² 0,0 km/h (0 Bft) 95,35 %
15.11.2025 08:44 11,8 °C 11,1 °C 7,2 °C 98 % 1009,1 hPa 0,0 l/m² 0 min 0 min 18 W/m² 0,0 km/h (0 Bft) 96,08 %
15.11.2025 08:46 11,9 °C 11,1 °C 7,2 °C 98 % 1009,1 hPa 0,0 l/m² 0 min 0 min 19 W/m² 0,0 km/h (0 Bft) 97,73 %
15.11.2025 08:48 11,9 °C 11,1 °C 7,2 °C 98 % 1009,1 hPa 0,0 l/m² 0 min 0 min 21 W/m² 0,0 km/h (0 Bft) 98,00 %
15.11.2025 08:50 11,9 °C 11,1 °C 7,2 °C 98 % 1009,1 hPa 0,0 l/m² 0 min 0 min 21 W/m² 0,0 km/h (0 Bft) 100,00 %
15.11.2025 08:52 11,9 °C 11,1 °C 7,2 °C 98 % 1009,1 hPa 0,0 l/m² 0 min 0 min 24 W/m² 0,0 km/h (0 Bft) 97,96 %
15.11.2025 08:54 11,9 °C 11,1 °C 7,2 °C 98 % 1009,1 hPa 0,0 l/m² 0 min 0 min 25 W/m² 0,0 km/h (0 Bft) 100,00 %
15.11.2025 08:56 11,9 °C 11,1 °C 7,2 °C 98 % 1009,1 hPa 0,0 l/m² 0 min 0 min 26 W/m² 0,0 km/h (0 Bft) 96,08 %
15.11.2025 08:58 11,9 °C 11,1 °C 7,2 °C 98 % 1009,1 hPa 0,0 l/m² 0 min 0 min 28 W/m² 0,0 km/h (0 Bft) 97,67 %
15.11.2025 09:00 11,9 °C 11,1 °C 7,2 °C 98 % 1009,1 hPa 0,0 l/m² 0 min 0 min 28 W/m² 0,0 km/h (0 Bft) 100,00 %
15.11.2025 09:02 11,9 °C 11,1 °C 7,8 °C 98 % 1009,2 hPa 0,0 l/m² 0 min 0 min 29 W/m² 0,0 km/h (0 Bft) 97,73 %
15.11.2025 09:04 11,9 °C 11,1 °C 7,8 °C 98 % 1009,2 hPa 0,0 l/m² 0 min 0 min 31 W/m² 0,0 km/h (0 Bft) 100,00 %
15.11.2025 09:06 11,9 °C 11,1 °C 7,8 °C 98 % 1009,2 hPa 0,0 l/m² 0 min 0 min 32 W/m² 0,0 km/h (0 Bft) 16,67 %
15.11.2025 09:08 11,9 °C 11,1 °C 7,8 °C 98 % 1009,2 hPa 0,0 l/m² 0 min 0 min 30 W/m² 0,0 km/h (0 Bft) 97,62 %
15.11.2025 09:10 11,9 °C 11,1 °C 7,8 °C 98 % 1009,3 hPa 0,0 l/m² 0 min 0 min 26 W/m² 0,0 km/h (0 Bft) 98,04 %
15.11.2025 09:12 11,9 °C 11,1 °C 7,8 °C 98 % 1009,3 hPa 0,0 l/m² 0 min 0 min 23 W/m² 0,0 km/h (0 Bft) 97,67 %
15.11.2025 09:14 11,9 °C 11,1 °C 7,8 °C 98 % 1009,3 hPa 0,0 l/m² 0 min 0 min 21 W/m² 0,0 km/h (0 Bft) 96,00 %
15.11.2025 09:16 11,9 °C 11,1 °C 7,8 °C 98 % 1009,2 hPa 0,0 l/m² 0 min 0 min 24 W/m² 0,0 km/h (0 Bft) 97,62 %
15.11.2025 09:18 11,9 °C 11,1 °C 7,8 °C 98 % 1009,2 hPa 0,0 l/m² 0 min 0 min 25 W/m² 0,0 km/h (0 Bft) 98,08 %
15.11.2025 09:20 11,9 °C 11,1 °C 7,8 °C 98 % 1009,2 hPa 0,0 l/m² 0 min 0 min 26 W/m² 0,0 km/h (0 Bft) 94,29 %
15.11.2025 09:22 11,9 °C 11,1 °C 7,8 °C 98 % 1009,2 hPa 0,0 l/m² 0 min 0 min 26 W/m² 0,0 km/h (0 Bft) 96,49 %
15.11.2025 09:24 11,9 °C 11,1 °C 7,8 °C 98 % 1009,1 hPa 0,0 l/m² 0 min 0 min 26 W/m² 0,0 km/h (0 Bft) 94,59 %
15.11.2025 09:26 11,9 °C 11,1 °C 7,8 °C 98 % 1009,1 hPa 0,0 l/m² 0 min 0 min 24 W/m² 0,0 km/h (0 Bft) 98,21 %
15.11.2025 09:28 11,9 °C 11,1 °C 7,8 °C 98 % 1009,1 hPa 0,0 l/m² 0 min 0 min 23 W/m² 0,0 km/h (0 Bft) 95,92 %
15.11.2025 09:30 11,9 °C 11,1 °C 7,8 °C 98 % 1009,1 hPa 0,0 l/m² 0 min 2 min 23 W/m² 0,0 km/h (0 Bft) 97,73 %
15.11.2025 09:32 11,9 °C 11,1 °C 7,8 °C 98 % 1009,1 hPa 0,0 l/m² 0 min 0 min 23 W/m² 0,0 km/h (0 Bft) 97,37 %
15.11.2025 09:34 11,9 °C 11,1 °C 7,8 °C 98 % 1009,1 hPa 0,0 l/m² 0 min 0 min 23 W/m² 0,0 km/h (0 Bft) 98,25 %
15.11.2025 09:36 11,9 °C 11,1 °C 7,2 °C 98 % 1009,1 hPa 0,0 l/m² 0 min 0 min 23 W/m² 0,0 km/h (0 Bft) 94,59 %
15.11.2025 09:38 11,9 °C 11,1 °C 7,2 °C 98 % 1009,0 hPa 0,0 l/m² 0 min 0 min 23 W/m² 0,0 km/h (0 Bft) 96,43 %
15.11.2025 09:40 11,9 °C 11,1 °C 7,2 °C 98 % 1009,0 hPa 0,0 l/m² 0 min 2 min 24 W/m² 0,0 km/h (0 Bft) 97,96 %
15.11.2025 09:42 11,8 °C 11,1 °C 7,2 °C 98 % 1009,0 hPa 0,0 l/m² 0 min 2 min 26 W/m² 0,0 km/h (0 Bft) 97,67 %
15.11.2025 09:44 11,8 °C 11,1 °C 7,2 °C 98 % 1009,0 hPa 0,0 l/m² 0 min 0 min 29 W/m² 0,0 km/h (0 Bft) 94,12 %
15.11.2025 09:46 11,8 °C 11,1 °C 7,8 °C 98 % 1009,0 hPa 0,0 l/m² 0 min 2 min 33 W/m² 0,0 km/h (0 Bft) 97,56 %
15.11.2025 09:48 11,8 °C 11,1 °C 7,8 °C 98 % 1009,1 hPa 0,0 l/m² 0 min 2 min 40 W/m² 0,0 km/h (0 Bft) 92,68 %
15.11.2025 09:50 11,8 °C 11,1 °C 7,8 °C 98 % 1009,1 hPa 0,0 l/m² 0 min 2 min 44 W/m² 0,0 km/h (0 Bft) 98,28 %
15.11.2025 09:52 11,8 °C 11,7 °C 7,8 °C 98 % 1009,0 hPa 0,0 l/m² 0 min 2 min 48 W/m² 0,0 km/h (0 Bft) 97,67 %
15.11.2025 09:54 11,9 °C 11,7 °C 7,8 °C 98 % 1009,0 hPa 0,0 l/m² 0 min 2 min 53 W/m² 0,0 km/h (0 Bft) 94,87 %
15.11.2025 09:56 11,9 °C 11,7 °C 7,8 °C 98 % 1009,1 hPa 0,0 l/m² 0 min 2 min 61 W/m² 0,0 km/h (0 Bft) 98,31 %
15.11.2025 09:58 11,9 °C 11,7 °C 7,8 °C 98 % 1009,1 hPa 0,0 l/m² 0 min 2 min 70 W/m² 0,0 km/h (0 Bft) 97,78 %
15.11.2025 10:00 11,9 °C 11,7 °C 7,8 °C 98 % 1009,1 hPa 0,0 l/m² 0 min 0 min 77 W/m² 0,0 km/h (0 Bft) 97,73 %
15.11.2025 10:02 11,9 °C 11,7 °C 7,8 °C 98 % 1009,1 hPa 0,0 l/m² 0 min 0 min 77 W/m² 0,0 km/h (0 Bft) 97,50 %
15.11.2025 10:04 11,9 °C 11,7 °C 7,8 °C 98 % 1009,1 hPa 0,0 l/m² 0 min 0 min 73 W/m² 0,0 km/h (0 Bft) 95,00 %
15.11.2025 10:06 12,0 °C 11,7 °C 7,8 °C 98 % 1009,1 hPa 0,0 l/m² 0 min 0 min 67 W/m² 0,0 km/h (0 Bft) 97,67 %
15.11.2025 10:08 12,0 °C 11,7 °C 7,8 °C 98 % 1009,1 hPa 0,0 l/m² 0 min 0 min 59 W/m² 0,0 km/h (0 Bft) 100,00 %
15.11.2025 10:10 12,0 °C 11,7 °C 7,8 °C 98 % 1009,1 hPa 0,0 l/m² 0 min 0 min 52 W/m² 0,0 km/h (0 Bft) 100,00 %
15.11.2025 10:12 12,0 °C 11,7 °C 7,8 °C 98 % 1009,1 hPa 0,0 l/m² 0 min 0 min 51 W/m² 0,0 km/h (0 Bft) 100,00 %
15.11.2025 10:14 12,1 °C 11,7 °C 7,8 °C 98 % 1009,1 hPa 0,0 l/m² 0 min 0 min 56 W/m² 0,0 km/h (0 Bft) 98,28 %
15.11.2025 10:16 12,1 °C 11,7 °C 7,8 °C 98 % 1009,1 hPa 0,0 l/m² 0 min 0 min 64 W/m² 0,0 km/h (0 Bft) 97,73 %
15.11.2025 10:18 12,1 °C 11,7 °C 7,8 °C 98 % 1009,1 hPa 0,0 l/m² 0 min 0 min 71 W/m² 0,0 km/h (0 Bft) 100,00 %
15.11.2025 10:20 12,1 °C 12,2 °C 7,8 °C 98 % 1009,2 hPa 0,0 l/m² 0 min 0 min 70 W/m² 0,0 km/h (0 Bft) 100,00 %
15.11.2025 10:22 12,1 °C 12,2 °C 7,8 °C 98 % 1009,1 hPa 0,0 l/m² 0 min 0 min 67 W/m² 0,0 km/h (0 Bft) 100,00 %
15.11.2025 10:24 12,1 °C 12,2 °C 7,8 °C 98 % 1009,1 hPa 0,0 l/m² 0 min 0 min 72 W/m² 0,0 km/h (0 Bft) 97,73 %
15.11.2025 10:26 12,1 °C 12,2 °C 7,8 °C 98 % 1009,1 hPa 0,0 l/m² 0 min 0 min 78 W/m² 6,4 km/h (2 Bft) 97,44 %
15.11.2025 10:28 12,1 °C 12,2 °C 7,8 °C 99 % 1009,1 hPa 0,0 l/m² 0 min 0 min 81 W/m² 3,2 km/h (1 Bft) 100,00 %
15.11.2025 10:30 12,1 °C 11,7 °C 7,8 °C 99 % 1009,1 hPa 0,0 l/m² 0 min 0 min 79 W/m² 6,4 km/h (2 Bft) 96,49 %
15.11.2025 10:32 12,1 °C 12,2 °C 7,8 °C 99 % 1009,1 hPa 0,0 l/m² 0 min 0 min 75 W/m² 3,2 km/h (1 Bft) 100,00 %
15.11.2025 10:34 12,2 °C 12,2 °C 7,8 °C 99 % 1009,1 hPa 0,0 l/m² 0 min 0 min 68 W/m² 3,2 km/h (1 Bft) 100,00 %
15.11.2025 10:36 12,2 °C 12,2 °C 7,8 °C 99 % 1009,1 hPa 0,0 l/m² 0 min 0 min 63 W/m² 3,2 km/h (1 Bft) 100,00 %
15.11.2025 10:38 12,2 °C 12,2 °C 7,8 °C 99 % 1009,1 hPa 0,0 l/m² 0 min 0 min 60 W/m² 6,4 km/h (2 Bft) 97,78 %
15.11.2025 10:40 12,2 °C 12,2 °C 7,8 °C 99 % 1009,1 hPa 0,0 l/m² 0 min 0 min 60 W/m² 3,2 km/h (1 Bft) 97,73 %
15.11.2025 10:42 12,2 °C 12,2 °C 7,8 °C 99 % 1009,1 hPa 0,0 l/m² 0 min 0 min 60 W/m² 3,2 km/h (1 Bft) 100,00 %
15.11.2025 10:44 12,2 °C 12,2 °C 7,8 °C 99 % 1009,2 hPa 0,0 l/m² 0 min 0 min 59 W/m² 3,2 km/h (1 Bft) 96,55 %
15.11.2025 10:46 12,2 °C 12,2 °C 7,8 °C 99 % 1009,2 hPa 0,0 l/m² 0 min 0 min 60 W/m² 3,2 km/h (1 Bft) 95,45 %
15.11.2025 10:48 12,2 °C 12,2 °C 7,8 °C 99 % 1009,2 hPa 0,0 l/m² 0 min 0 min 54 W/m² 3,2 km/h (1 Bft) 94,87 %
15.11.2025 10:50 12,2 °C 12,2 °C 7,8 °C 99 % 1009,3 hPa 0,0 l/m² 0 min 0 min 49 W/m² 0,0 km/h (0 Bft) 96,55 %
15.11.2025 10:52 12,2 °C 12,2 °C 7,8 °C 99 % 1009,3 hPa 0,0 l/m² 0 min 0 min 51 W/m² 0,0 km/h (0 Bft) 93,18 %
15.11.2025 10:54 12,2 °C 12,2 °C 8,3 °C 99 % 1009,3 hPa 0,0 l/m² 0 min 0 min 58 W/m² 6,4 km/h (2 Bft) 94,74 %
15.11.2025 10:56 12,2 °C 12,2 °C 8,3 °C 99 % 1009,3 hPa 0,0 l/m² 0 min 0 min 68 W/m² 3,2 km/h (1 Bft) 94,83 %
15.11.2025 10:58 12,2 °C 12,2 °C 8,3 °C 99 % 1009,3 hPa 0,0 l/m² 0 min 0 min 78 W/m² 6,4 km/h (2 Bft) 95,35 %
15.11.2025 11:00 12,3 °C 12,2 °C 8,3 °C 99 % 1009,3 hPa 0,0 l/m² 0 min 0 min 95 W/m² 9,7 km/h (2 Bft) 95,00 %
15.11.2025 11:02 12,3 °C 12,8 °C 8,3 °C 99 % 1009,3 hPa 0,0 l/m² 0 min 0 min 110 W/m² 0,0 km/h (0 Bft) 96,49 %
15.11.2025 11:04 12,3 °C 12,8 °C 8,3 °C 99 % 1009,3 hPa 0,0 l/m² 0 min 0 min 103 W/m² 3,2 km/h (1 Bft) 89,74 %
15.11.2025 11:06 12,3 °C 12,8 °C 8,3 °C 99 % 1009,3 hPa 0,0 l/m² 0 min 0 min 100 W/m² 3,2 km/h (1 Bft) 94,44 %
15.11.2025 11:08 12,3 °C 12,8 °C 8,3 °C 99 % 1009,3 hPa 0,0 l/m² 0 min 0 min 93 W/m² 0,0 km/h (0 Bft) 95,00 %
15.11.2025 11:10 12,3 °C 12,8 °C 8,3 °C 99 % 1009,3 hPa 0,0 l/m² 0 min 0 min 87 W/m² 0,0 km/h (0 Bft) 95,65 %
15.11.2025 11:12 12,3 °C 12,8 °C 8,3 °C 99 % 1009,2 hPa 0,0 l/m² 0 min 0 min 79 W/m² 0,0 km/h (0 Bft) 92,59 %
15.11.2025 11:14 12,4 °C 12,8 °C 8,3 °C 99 % 1009,3 hPa 0,0 l/m² 0 min 0 min 72 W/m² 0,0 km/h (0 Bft) 95,00 %
15.11.2025 11:16 12,4 °C 12,8 °C 8,3 °C 99 % 1009,4 hPa 0,0 l/m² 0 min 0 min 72 W/m² 0,0 km/h (0 Bft) 96,36 %
15.11.2025 11:18 12,4 °C 12,2 °C 8,3 °C 99 % 1009,4 hPa 0,0 l/m² 0 min 0 min 70 W/m² 0,0 km/h (0 Bft) 94,87 %
15.11.2025 11:20 12,4 °C 12,2 °C 8,3 °C 99 % 1009,4 hPa 0,0 l/m² 0 min 0 min 66 W/m² 6,4 km/h (2 Bft) 95,74 %
15.11.2025 11:22 12,4 °C 12,2 °C 8,3 °C 99 % 1009,4 hPa 0,0 l/m² 0 min 0 min 62 W/m² 0,0 km/h (0 Bft) 96,30 %
15.11.2025 11:24 12,4 °C 12,2 °C 8,3 °C 99 % 1009,3 hPa 0,0 l/m² 0 min 0 min 62 W/m² 6,4 km/h (2 Bft) 97,44 %
15.11.2025 11:26 12,3 °C 12,2 °C 8,3 °C 99 % 1009,4 hPa 0,0 l/m² 0 min 0 min 63 W/m² 3,2 km/h (1 Bft) 66,67 %
15.11.2025 11:28 12,4 °C 12,2 °C 8,3 °C 99 % 1009,4 hPa 0,0 l/m² 0 min 0 min 63 W/m² 0,0 km/h (0 Bft) 91,18 %
15.11.2025 11:30 12,4 °C 12,2 °C 8,3 °C 99 % 1009,3 hPa 0,0 l/m² 0 min 0 min 59 W/m² 3,2 km/h (1 Bft) 100,00 %
15.11.2025 11:32 12,4 °C 12,2 °C 8,3 °C 99 % 1009,3 hPa 0,0 l/m² 0 min 0 min 54 W/m² 3,2 km/h (1 Bft) 100,00 %
15.11.2025 11:34 12,4 °C 12,2 °C 8,3 °C 99 % 1009,3 hPa 0,0 l/m² 0 min 0 min 53 W/m² 0,0 km/h (0 Bft) 100,00 %
15.11.2025 11:36 12,4 °C 12,2 °C 8,3 °C 99 % 1009,3 hPa 0,0 l/m² 0 min 0 min 50 W/m² 0,0 km/h (0 Bft) 100,00 %
15.11.2025 11:38 12,4 °C 12,2 °C 8,3 °C 99 % 1009,3 hPa 0,0 l/m² 0 min 0 min 49 W/m² 0,0 km/h (0 Bft) 100,00 %
15.11.2025 11:40 12,4 °C 12,2 °C 8,3 °C 99 % 1009,3 hPa 0,0 l/m² 0 min 0 min 49 W/m² 3,2 km/h (1 Bft) 100,00 %
15.11.2025 11:42 12,4 °C 12,2 °C 8,3 °C 99 % 1009,4 hPa 0,0 l/m² 0 min 0 min 50 W/m² 0,0 km/h (0 Bft) 100,00 %
15.11.2025 11:44 12,4 °C 12,2 °C 8,3 °C 99 % 1009,4 hPa 0,0 l/m² 0 min 0 min 51 W/m² 3,2 km/h (1 Bft) 100,00 %
15.11.2025 11:46 12,3 °C 12,2 °C 8,3 °C 99 % 1009,3 hPa 0,0 l/m² 0 min 0 min 53 W/m² 0,0 km/h (0 Bft) 100,00 %
15.11.2025 11:48 12,3 °C 12,2 °C 8,3 °C 99 % 1009,3 hPa 0,0 l/m² 0 min 0 min 55 W/m² 0,0 km/h (0 Bft) 100,00 %
15.11.2025 11:50 12,3 °C 12,2 °C 8,3 °C 99 % 1009,3 hPa 0,0 l/m² 0 min 0 min 56 W/m² 6,4 km/h (2 Bft) 100,00 %
15.11.2025 11:52 12,3 °C 12,2 °C 8,3 °C 99 % 1009,3 hPa 0,0 l/m² 0 min 0 min 63 W/m² 0,0 km/h (0 Bft) 97,87 %
15.11.2025 11:54 12,3 °C 12,2 °C 8,3 °C 99 % 1009,3 hPa 0,0 l/m² 0 min 0 min 69 W/m² 0,0 km/h (0 Bft) 100,00 %
15.11.2025 11:56 12,3 °C 12,2 °C 8,3 °C 99 % 1009,2 hPa 0,0 l/m² 0 min 0 min 70 W/m² 0,0 km/h (0 Bft) 100,00 %
15.11.2025 11:58 12,3 °C 12,2 °C 8,3 °C 99 % 1009,2 hPa 0,0 l/m² 0 min 0 min 70 W/m² 0,0 km/h (0 Bft) 100,00 %
15.11.2025 12:00 12,3 °C 12,2 °C 8,3 °C 99 % 1009,3 hPa 0,0 l/m² 0 min 0 min 67 W/m² 0,0 km/h (0 Bft) 98,21 %
15.11.2025 12:02 12,3 °C 12,2 °C 8,3 °C 99 % 1009,3 hPa 0,0 l/m² 0 min 0 min 65 W/m² 0,0 km/h (0 Bft) 97,44 %
15.11.2025 12:04 12,3 °C 12,2 °C 8,3 °C 99 % 1009,2 hPa 0,0 l/m² 0 min 0 min 63 W/m² 0,0 km/h (0 Bft) 97,87 %
15.11.2025 12:08 12,3 °C 12,2 °C 8,3 °C 99 % 1009,2 hPa 0,0 l/m² 0 min 0 min 59 W/m² 0,0 km/h (0 Bft) 100,00 %
15.11.2025 12:10 12,4 °C 12,2 °C 8,3 °C 99 % 1009,2 hPa 0,0 l/m² 0 min 0 min 55 W/m² 0,0 km/h (0 Bft) 100,00 %
15.11.2025 12:12 12,4 °C 12,2 °C 8,3 °C 99 % 1009,2 hPa 0,0 l/m² 0 min 0 min 54 W/m² 0,0 km/h (0 Bft) 100,00 %
15.11.2025 12:16 12,4 °C 12,8 °C 8,3 °C 99 % 1009,2 hPa 0,0 l/m² 0 min 0 min 54 W/m² 0,0 km/h (0 Bft) 97,85 %
15.11.2025 12:18 12,4 °C 12,8 °C 8,3 °C 99 % 1009,2 hPa 0,0 l/m² 0 min 0 min 56 W/m² 0,0 km/h (0 Bft) 98,15 %
15.11.2025 12:20 12,4 °C 12,2 °C 8,3 °C 99 % 1009,2 hPa 0,0 l/m² 0 min 0 min 56 W/m² 0,0 km/h (0 Bft) 97,56 %
15.11.2025 12:22 12,4 °C 12,8 °C 8,3 °C 99 % 1009,1 hPa 0,0 l/m² 0 min 0 min 56 W/m² 0,0 km/h (0 Bft) 97,67 %
15.11.2025 12:24 12,4 °C 12,8 °C 8,3 °C 99 % 1009,1 hPa 0,0 l/m² 0 min 0 min 54 W/m² 0,0 km/h (0 Bft) 96,00 %
15.11.2025 12:26 12,4 °C 12,8 °C 8,3 °C 99 % 1009,1 hPa 0,0 l/m² 0 min 0 min 51 W/m² 3,2 km/h (1 Bft) 97,83 %
15.11.2025 12:28 12,4 °C 12,8 °C 8,3 °C 99 % 1009,1 hPa 0,0 l/m² 0 min 0 min 47 W/m² 0,0 km/h (0 Bft) 97,73 %
15.11.2025 12:30 12,4 °C 12,8 °C 8,3 °C 99 % 1009,1 hPa 0,0 l/m² 0 min 0 min 45 W/m² 0,0 km/h (0 Bft) 98,04 %
15.11.2025 12:32 12,4 °C 12,2 °C 8,3 °C 99 % 1009,1 hPa 0,0 l/m² 0 min 0 min 44 W/m² 0,0 km/h (0 Bft) 97,87 %
15.11.2025 12:34 12,4 °C 12,2 °C 8,3 °C 99 % 1009,1 hPa 0,0 l/m² 0 min 0 min 46 W/m² 0,0 km/h (0 Bft) 97,67 %
15.11.2025 12:36 12,4 °C 12,2 °C 8,3 °C 99 % 1009,1 hPa 0,0 l/m² 0 min 0 min 48 W/m² 0,0 km/h (0 Bft) 98,00 %
15.11.2025 12:38 12,4 °C 12,2 °C 8,3 °C 99 % 1009,0 hPa 0,0 l/m² 0 min 0 min 50 W/m² 0,0 km/h (0 Bft) 97,83 %
15.11.2025 12:40 12,4 °C 12,2 °C 8,3 °C 99 % 1009,0 hPa 0,0 l/m² 0 min 0 min 53 W/m² 0,0 km/h (0 Bft) 96,30 %
15.11.2025 12:42 12,4 °C 12,2 °C 8,3 °C 99 % 1008,9 hPa 0,0 l/m² 0 min 0 min 54 W/m² 0,0 km/h (0 Bft) 92,68 %
15.11.2025 12:44 12,5 °C 12,2 °C 8,3 °C 99 % 1008,9 hPa 0,0 l/m² 0 min 0 min 54 W/m² 0,0 km/h (0 Bft) 95,56 %
15.11.2025 12:46 12,5 °C 12,2 °C 8,3 °C 99 % 1008,9 hPa 0,0 l/m² 0 min 0 min 52 W/m² 0,0 km/h (0 Bft) 89,58 %
15.11.2025 12:48 12,5 °C 12,2 °C 8,3 °C 99 % 1008,9 hPa 0,0 l/m² 0 min 0 min 47 W/m² 0,0 km/h (0 Bft) 95,74 %
15.11.2025 12:50 12,5 °C 12,2 °C 8,3 °C 99 % 1008,9 hPa 0,0 l/m² 0 min 0 min 40 W/m² 0,0 km/h (0 Bft) 93,62 %
15.11.2025 12:52 12,5 °C 12,2 °C 8,3 °C 99 % 1008,9 hPa 0,0 l/m² 0 min 0 min 40 W/m² 0,0 km/h (0 Bft) 95,65 %
15.11.2025 12:54 12,5 °C 12,2 °C 8,3 °C 99 % 1008,9 hPa 0,0 l/m² 0 min 0 min 40 W/m² 0,0 km/h (0 Bft) 95,65 %
15.11.2025 12:56 12,5 °C 12,2 °C 8,3 °C 99 % 1008,9 hPa 0,0 l/m² 0 min 0 min 42 W/m² 0,0 km/h (0 Bft) 93,62 %
15.11.2025 12:58 12,5 °C 12,2 °C 8,3 °C 99 % 1008,9 hPa 0,0 l/m² 0 min 0 min 42 W/m² 0,0 km/h (0 Bft) 93,62 %
15.11.2025 13:00 12,5 °C 12,2 °C 8,3 °C 99 % 1008,9 hPa 0,0 l/m² 0 min 0 min 43 W/m² 0,0 km/h (0 Bft) 96,36 %
15.11.2025 13:02 12,6 °C 12,2 °C 8,3 °C 99 % 1008,9 hPa 0,0 l/m² 0 min 0 min 47 W/m² 0,0 km/h (0 Bft) 92,50 %
15.11.2025 13:04 12,6 °C 12,2 °C 8,3 °C 99 % 1008,8 hPa 0,0 l/m² 0 min 0 min 54 W/m² 0,0 km/h (0 Bft) 97,78 %
15.11.2025 13:06 12,6 °C 12,2 °C 8,3 °C 99 % 1008,8 hPa 0,0 l/m² 0 min 0 min 59 W/m² 0,0 km/h (0 Bft) 96,08 %
15.11.2025 13:08 12,6 °C 12,2 °C 8,3 °C 99 % 1008,8 hPa 0,0 l/m² 0 min 0 min 65 W/m² 0,0 km/h (0 Bft) 97,87 %
15.11.2025 13:10 12,6 °C 12,2 °C 8,3 °C 99 % 1008,8 hPa 0,0 l/m² 0 min 0 min 71 W/m² 0,0 km/h (0 Bft) 97,83 %
15.11.2025 13:12 12,6 °C 12,2 °C 8,3 °C 99 % 1008,8 hPa 0,0 l/m² 0 min 0 min 75 W/m² 0,0 km/h (0 Bft) 97,73 %
15.11.2025 13:14 12,6 °C 12,8 °C 8,3 °C 99 % 1008,8 hPa 0,0 l/m² 0 min 0 min 79 W/m² 0,0 km/h (0 Bft) 97,37 %
15.11.2025 13:16 12,6 °C 12,8 °C 8,9 °C 99 % 1008,8 hPa 0,0 l/m² 0 min 0 min 79 W/m² 3,2 km/h (1 Bft) 98,31 %
15.11.2025 13:18 12,7 °C 12,8 °C 8,9 °C 99 % 1008,8 hPa 0,0 l/m² 0 min 0 min 74 W/m² 0,0 km/h (0 Bft) 100,00 %
15.11.2025 13:20 12,7 °C 12,8 °C 8,9 °C 99 % 1008,7 hPa 0,0 l/m² 0 min 0 min 69 W/m² 0,0 km/h (0 Bft) 94,74 %
15.11.2025 13:22 12,7 °C 12,8 °C 8,9 °C 99 % 1008,8 hPa 0,0 l/m² 0 min 0 min 68 W/m² 3,2 km/h (1 Bft) 98,28 %
15.11.2025 13:24 12,7 °C 12,8 °C 8,9 °C 99 % 1008,7 hPa 0,0 l/m² 0 min 0 min 64 W/m² 0,0 km/h (0 Bft) 97,73 %
15.11.2025 13:26 12,7 °C 12,8 °C 8,9 °C 99 % 1008,7 hPa 0,0 l/m² 0 min 0 min 62 W/m² 0,0 km/h (0 Bft) 96,00 %
15.11.2025 13:28 12,7 °C 12,8 °C 8,9 °C 99 % 1008,7 hPa 0,0 l/m² 0 min 0 min 58 W/m² 0,0 km/h (0 Bft) 95,74 %
15.11.2025 13:30 12,7 °C 12,8 °C 8,9 °C 99 % 1008,7 hPa 0,0 l/m² 0 min 0 min 53 W/m² 0,0 km/h (0 Bft) 97,67 %
15.11.2025 13:32 12,7 °C 12,8 °C 8,3 °C 99 % 1008,7 hPa 0,0 l/m² 0 min 0 min 53 W/m² 0,0 km/h (0 Bft) 100,00 %
15.11.2025 13:34 12,7 °C 12,8 °C 8,3 °C 99 % 1008,7 hPa 0,0 l/m² 0 min 0 min 53 W/m² 0,0 km/h (0 Bft) 96,55 %
15.11.2025 13:36 12,7 °C 12,8 °C 8,3 °C 99 % 1008,7 hPa 0,0 l/m² 0 min 0 min 52 W/m² 0,0 km/h (0 Bft) 97,83 %
15.11.2025 13:38 12,7 °C 12,8 °C 8,3 °C 99 % 1008,7 hPa 0,0 l/m² 0 min 0 min 48 W/m² 0,0 km/h (0 Bft) 97,78 %
15.11.2025 13:40 12,7 °C 12,8 °C 8,3 °C 99 % 1008,7 hPa 0,0 l/m² 0 min 0 min 47 W/m² 0,0 km/h (0 Bft) 96,00 %
15.11.2025 13:42 12,7 °C 12,8 °C 8,3 °C 99 % 1008,7 hPa 0,0 l/m² 0 min 0 min 46 W/m² 0,0 km/h (0 Bft) 93,62 %
15.11.2025 13:44 12,7 °C 12,8 °C 8,3 °C 99 % 1008,6 hPa 0,0 l/m² 0 min 0 min 46 W/m² 0,0 km/h (0 Bft) 97,67 %
15.11.2025 13:46 12,7 °C 12,8 °C 8,3 °C 99 % 1008,6 hPa 0,0 l/m² 0 min 0 min 49 W/m² 0,0 km/h (0 Bft) 98,00 %
15.11.2025 13:48 12,7 °C 12,8 °C 8,3 °C 99 % 1008,6 hPa 0,0 l/m² 0 min 2 min 49 W/m² 3,2 km/h (1 Bft) 97,87 %
15.11.2025 13:50 12,7 °C 12,8 °C 8,9 °C 99 % 1008,6 hPa 0,0 l/m² 0 min 0 min 47 W/m² 0,0 km/h (0 Bft) 95,56 %
15.11.2025 13:52 12,7 °C 12,8 °C 8,9 °C 99 % 1008,6 hPa 0,0 l/m² 0 min 0 min 46 W/m² 3,2 km/h (1 Bft) 97,67 %
15.11.2025 13:54 12,7 °C 12,8 °C 8,9 °C 99 % 1008,6 hPa 0,0 l/m² 0 min 0 min 47 W/m² 0,0 km/h (0 Bft) 98,11 %
15.11.2025 13:56 12,7 °C 12,8 °C 8,9 °C 99 % 1008,6 hPa 0,0 l/m² 0 min 0 min 50 W/m² 0,0 km/h (0 Bft) 97,83 %
15.11.2025 13:58 12,7 °C 12,8 °C 8,3 °C 99 % 1008,6 hPa 0,0 l/m² 0 min 0 min 53 W/m² 3,2 km/h (1 Bft) 97,22 %
15.11.2025 14:00 12,7 °C 12,8 °C 8,3 °C 99 % 1008,5 hPa 0,0 l/m² 0 min 0 min 54 W/m² 0,0 km/h (0 Bft) 96,55 %
15.11.2025 14:02 12,7 °C 12,8 °C 8,3 °C 99 % 1008,6 hPa 0,2 l/m² 0 min 0 min 56 W/m² 0,0 km/h (0 Bft) 100,00 %
15.11.2025 14:04 12,7 °C 12,8 °C 8,9 °C 99 % 1008,6 hPa 0,0 l/m² 0 min 2 min 56 W/m² 0,0 km/h (0 Bft) 96,55 %
15.11.2025 14:06 12,7 °C 12,8 °C 8,9 °C 99 % 1008,6 hPa 0,0 l/m² 0 min 2 min 56 W/m² 0,0 km/h (0 Bft) 100,00 %
15.11.2025 14:08 12,7 °C 12,8 °C 8,9 °C 99 % 1008,6 hPa 0,0 l/m² 0 min 2 min 56 W/m² 0,0 km/h (0 Bft) 100,00 %
15.11.2025 14:10 12,7 °C 12,8 °C 8,9 °C 99 % 1008,6 hPa 0,0 l/m² 0 min 0 min 57 W/m² 0,0 km/h (0 Bft) 100,00 %
15.11.2025 14:12 12,7 °C 12,8 °C 8,9 °C 99 % 1008,6 hPa 0,0 l/m² 0 min 0 min 62 W/m² 0,0 km/h (0 Bft) 100,00 %
15.11.2025 14:14 12,8 °C 12,8 °C 8,9 °C 99 % 1008,6 hPa 0,0 l/m² 0 min 0 min 65 W/m² 0,0 km/h (0 Bft) 100,00 %
15.11.2025 14:16 12,8 °C 12,8 °C 8,9 °C 99 % 1008,5 hPa 0,0 l/m² 0 min 0 min 72 W/m² 0,0 km/h (0 Bft) 100,00 %
15.11.2025 14:18 12,8 °C 12,8 °C 8,9 °C 99 % 1008,6 hPa 0,0 l/m² 0 min 0 min 78 W/m² 0,0 km/h (0 Bft) 100,00 %
15.11.2025 14:20 12,8 °C 12,8 °C 8,9 °C 99 % 1008,5 hPa 0,2 l/m² 0 min 0 min 85 W/m² 3,2 km/h (1 Bft) 97,62 %
15.11.2025 14:22 12,8 °C 13,3 °C 8,9 °C 99 % 1008,5 hPa 0,0 l/m² 0 min 0 min 93 W/m² 0,0 km/h (0 Bft) 100,00 %
15.11.2025 14:24 12,8 °C 13,3 °C 8,9 °C 99 % 1008,5 hPa 0,0 l/m² 0 min 0 min 101 W/m² 0,0 km/h (0 Bft) 100,00 %
15.11.2025 14:26 12,8 °C 13,3 °C 8,9 °C 99 % 1008,5 hPa 0,0 l/m² 0 min 0 min 105 W/m² 0,0 km/h (0 Bft) 98,04 %
15.11.2025 14:28 12,8 °C 13,3 °C 8,9 °C 99 % 1008,5 hPa 0,0 l/m² 0 min 0 min 102 W/m² 3,2 km/h (1 Bft) 100,00 %
15.11.2025 14:30 12,9 °C 13,3 °C 8,9 °C 99 % 1008,6 hPa 0,0 l/m² 0 min 0 min 92 W/m² 0,0 km/h (0 Bft) 98,28 %
15.11.2025 14:32 12,9 °C 13,3 °C 8,9 °C 99 % 1008,5 hPa 0,0 l/m² 0 min 0 min 81 W/m² 0,0 km/h (0 Bft) 100,00 %
15.11.2025 14:34 12,9 °C 13,3 °C 8,9 °C 99 % 1008,5 hPa 0,0 l/m² 0 min 0 min 80 W/m² 0,0 km/h (0 Bft) 100,00 %
15.11.2025 14:36 12,9 °C 13,3 °C 8,9 °C 99 % 1008,5 hPa 0,0 l/m² 0 min 0 min 79 W/m² 0,0 km/h (0 Bft) 97,14 %
15.11.2025 14:38 12,9 °C 13,3 °C 8,9 °C 99 % 1008,4 hPa 0,0 l/m² 0 min 0 min 77 W/m² 0,0 km/h (0 Bft) 94,83 %
15.11.2025 14:40 12,9 °C 13,3 °C 8,9 °C 99 % 1008,5 hPa 0,0 l/m² 0 min 0 min 75 W/m² 0,0 km/h (0 Bft) 97,22 %
15.11.2025 14:42 12,9 °C 12,8 °C 8,9 °C 99 % 1008,5 hPa 0,0 l/m² 0 min 0 min 70 W/m² 0,0 km/h (0 Bft) 96,43 %
15.11.2025 14:44 13,0 °C 12,8 °C 8,9 °C 99 % 1008,5 hPa 0,0 l/m² 0 min 0 min 66 W/m² 0,0 km/h (0 Bft) 97,37 %
15.11.2025 14:46 13,0 °C 12,8 °C 8,9 °C 99 % 1008,5 hPa 0,0 l/m² 0 min 0 min 58 W/m² 0,0 km/h (0 Bft) 98,21 %
15.11.2025 14:48 13,0 °C 12,8 °C 8,9 °C 99 % 1008,5 hPa 0,0 l/m² 0 min 0 min 51 W/m² 3,2 km/h (1 Bft) 97,30 %
15.11.2025 14:50 13,0 °C 12,8 °C 8,9 °C 99 % 1008,5 hPa 0,0 l/m² 0 min 0 min 46 W/m² 0,0 km/h (0 Bft) 96,43 %
15.11.2025 14:52 13,0 °C 12,8 °C 8,9 °C 99 % 1008,4 hPa 0,0 l/m² 0 min 0 min 44 W/m² 0,0 km/h (0 Bft) 100,00 %
15.11.2025 14:54 13,0 °C 12,8 °C 8,9 °C 99 % 1008,5 hPa 0,0 l/m² 0 min 0 min 44 W/m² 0,0 km/h (0 Bft) 92,86 %
15.11.2025 14:56 13,1 °C 12,8 °C 8,9 °C 99 % 1008,5 hPa 0,0 l/m² 0 min 0 min 39 W/m² 0,0 km/h (0 Bft) 100,00 %
15.11.2025 14:58 13,0 °C 12,8 °C 8,9 °C 99 % 1008,5 hPa 0,0 l/m² 0 min 0 min 34 W/m² 0,0 km/h (0 Bft) 96,43 %
15.11.2025 15:00 13,0 °C 12,2 °C 8,9 °C 99 % 1008,5 hPa 0,0 l/m² 0 min 0 min 31 W/m² 3,2 km/h (1 Bft) 97,30 %
15.11.2025 15:02 12,9 °C 12,2 °C 8,9 °C 99 % 1008,5 hPa 0,0 l/m² 0 min 0 min 28 W/m² 6,4 km/h (2 Bft) 98,21 %
15.11.2025 15:04 12,9 °C 12,2 °C 8,9 °C 99 % 1008,5 hPa 0,0 l/m² 0 min 0 min 25 W/m² 0,0 km/h (0 Bft) 98,08 %
15.11.2025 15:06 12,9 °C 12,2 °C 8,9 °C 99 % 1008,5 hPa 0,0 l/m² 0 min 0 min 22 W/m² 0,0 km/h (0 Bft) 97,22 %
15.11.2025 15:08 12,9 °C 12,2 °C 8,9 °C 99 % 1008,5 hPa 0,0 l/m² 0 min 0 min 21 W/m² 0,0 km/h (0 Bft) 95,65 %
15.11.2025 15:10 12,9 °C 12,2 °C 8,9 °C 99 % 1008,5 hPa 0,0 l/m² 0 min 0 min 23 W/m² 0,0 km/h (0 Bft) 98,15 %
15.11.2025 15:12 12,9 °C 12,2 °C 8,9 °C 99 % 1008,5 hPa 0,0 l/m² 0 min 0 min 24 W/m² 0,0 km/h (0 Bft) 96,08 %
15.11.2025 15:14 12,9 °C 12,2 °C 8,9 °C 99 % 1008,5 hPa 0,0 l/m² 0 min 0 min 26 W/m² 3,2 km/h (1 Bft) 100,00 %
15.11.2025 15:16 12,9 °C 12,2 °C 8,9 °C 99 % 1008,4 hPa 0,0 l/m² 0 min 0 min 26 W/m² 0,0 km/h (0 Bft) 96,49 %
15.11.2025 15:18 12,9 °C 12,2 °C 8,9 °C 99 % 1008,4 hPa 0,0 l/m² 0 min 0 min 26 W/m² 0,0 km/h (0 Bft) 97,30 %
15.11.2025 15:20 12,9 °C 12,2 °C 8,9 °C 99 % 1008,4 hPa 0,0 l/m² 0 min 0 min 25 W/m² 0,0 km/h (0 Bft) 98,28 %
15.11.2025 15:22 12,9 °C 12,2 °C 8,9 °C 99 % 1008,4 hPa 0,0 l/m² 0 min 0 min 26 W/m² 0,0 km/h (0 Bft) 93,18 %
15.11.2025 15:24 12,9 °C 12,2 °C 8,9 °C 99 % 1008,4 hPa 0,0 l/m² 0 min 0 min 27 W/m² 0,0 km/h (0 Bft) 97,37 %
15.11.2025 15:26 12,9 °C 12,2 °C 8,9 °C 99 % 1008,4 hPa 0,0 l/m² 0 min 0 min 28 W/m² 0,0 km/h (0 Bft) 97,87 %
15.11.2025 15:28 12,9 °C 12,2 °C 8,9 °C 99 % 1008,4 hPa 0,0 l/m² 0 min 0 min 28 W/m² 0,0 km/h (0 Bft) 98,21 %
15.11.2025 15:30 12,9 °C 12,2 °C 8,9 °C 99 % 1008,4 hPa 0,0 l/m² 0 min 0 min 25 W/m² 0,0 km/h (0 Bft) 97,37 %
15.11.2025 15:32 12,9 °C 12,2 °C 8,9 °C 99 % 1008,4 hPa 0,0 l/m² 0 min 0 min 22 W/m² 0,0 km/h (0 Bft) 96,49 %
15.11.2025 15:34 12,9 °C 12,2 °C 8,9 °C 99 % 1008,4 hPa 0,0 l/m² 0 min 0 min 21 W/m² 3,2 km/h (1 Bft) 97,22 %
15.11.2025 15:36 12,8 °C 12,2 °C 8,9 °C 99 % 1008,4 hPa 0,0 l/m² 0 min 0 min 19 W/m² 0,0 km/h (0 Bft) 98,21 %
15.11.2025 15:38 12,8 °C 12,2 °C 8,9 °C 99 % 1008,5 hPa 0,0 l/m² 0 min 0 min 20 W/m² 0,0 km/h (0 Bft) 97,37 %
15.11.2025 15:40 12,8 °C 12,2 °C 8,9 °C 99 % 1008,4 hPa 0,0 l/m² 0 min 0 min 20 W/m² 0,0 km/h (0 Bft) 98,18 %
15.11.2025 15:42 12,8 °C 12,2 °C 8,9 °C 99 % 1008,4 hPa 0,0 l/m² 0 min 0 min 19 W/m² 0,0 km/h (0 Bft) 97,44 %
15.11.2025 15:44 12,8 °C 12,2 °C 8,3 °C 99 % 1008,4 hPa 0,0 l/m² 0 min 0 min 19 W/m² 0,0 km/h (0 Bft) 94,55 %
15.11.2025 15:46 12,8 °C 12,2 °C 8,3 °C 99 % 1008,4 hPa 0,0 l/m² 0 min 0 min 18 W/m² 3,2 km/h (1 Bft) 97,37 %
15.11.2025 15:48 12,8 °C 12,2 °C 8,3 °C 99 % 1008,4 hPa 0,0 l/m² 0 min 0 min 16 W/m² 3,2 km/h (1 Bft) 98,15 %
15.11.2025 15:50 12,8 °C 12,2 °C 8,3 °C 99 % 1008,4 hPa 0,0 l/m² 0 min 0 min 15 W/m² 0,0 km/h (0 Bft) 97,50 %
15.11.2025 15:52 12,8 °C 12,2 °C 8,3 °C 99 % 1008,4 hPa 0,0 l/m² 0 min 0 min 14 W/m² 0,0 km/h (0 Bft) 92,59 %
15.11.2025 15:54 12,8 °C 12,2 °C 8,3 °C 99 % 1008,4 hPa 0,0 l/m² 0 min 0 min 12 W/m² 3,2 km/h (1 Bft) 97,50 %
15.11.2025 15:56 12,8 °C 12,2 °C 8,3 °C 99 % 1008,4 hPa 0,0 l/m² 0 min 0 min 12 W/m² 0,0 km/h (0 Bft) 98,15 %
15.11.2025 15:58 12,7 °C 12,2 °C 8,3 °C 99 % 1008,5 hPa 0,0 l/m² 0 min 0 min 11 W/m² 0,0 km/h (0 Bft) 97,44 %
15.11.2025 16:00 12,7 °C 12,2 °C 8,3 °C 99 % 1008,5 hPa 0,0 l/m² 0 min 0 min 11 W/m² 0,0 km/h (0 Bft) 98,18 %
15.11.2025 16:02 12,7 °C 11,7 °C 8,3 °C 99 % 1008,5 hPa 0,0 l/m² 0 min 0 min 11 W/m² 0,0 km/h (0 Bft) 97,44 %
15.11.2025 16:04 12,7 °C 11,7 °C 8,3 °C 99 % 1008,5 hPa 0,0 l/m² 0 min 0 min 11 W/m² 0,0 km/h (0 Bft) 98,18 %
15.11.2025 16:07 12,7 °C 11,7 °C 8,3 °C 99 % 1008,4 hPa 0,0 l/m² 0 min 0 min 12 W/m² 0,0 km/h (0 Bft) 96,88 %
15.11.2025 16:08 12,7 °C 11,7 °C 8,3 °C 99 % 1008,4 hPa 0,0 l/m² 0 min 0 min 12 W/m² 0,0 km/h (0 Bft) 100,00 %
15.11.2025 16:12 12,6 °C 11,7 °C 8,3 °C 99 % 1008,4 hPa 0,0 l/m² 0 min 0 min 12 W/m² 0,0 km/h (0 Bft) 96,55 %
15.11.2025 16:14 12,6 °C 11,7 °C 8,3 °C 99 % 1008,4 hPa 0,0 l/m² 0 min 0 min 12 W/m² 0,0 km/h (0 Bft) 100,00 %
15.11.2025 16:16 12,6 °C 11,7 °C 8,3 °C 99 % 1008,4 hPa 0,0 l/m² 0 min 0 min 12 W/m² 0,0 km/h (0 Bft) 96,30 %
15.11.2025 16:18 12,6 °C 11,7 °C 8,3 °C 99 % 1008,3 hPa 0,0 l/m² 0 min 0 min 12 W/m² 0,0 km/h (0 Bft) 97,50 %
15.11.2025 16:20 12,6 °C 11,7 °C 8,3 °C 99 % 1008,3 hPa 0,0 l/m² 0 min 0 min 14 W/m² 0,0 km/h (0 Bft) 95,65 %
15.11.2025 16:22 12,6 °C 11,7 °C 8,3 °C 99 % 1008,2 hPa 0,0 l/m² 0 min 0 min 14 W/m² 0,0 km/h (0 Bft) 97,83 %
15.11.2025 16:24 12,6 °C 11,7 °C 8,3 °C 99 % 1008,2 hPa 0,0 l/m² 0 min 0 min 12 W/m² 6,4 km/h (2 Bft) 97,92 %
15.11.2025 16:26 12,6 °C 11,7 °C 8,3 °C 99 % 1008,3 hPa 0,0 l/m² 0 min 0 min 10 W/m² 0,0 km/h (0 Bft) 94,55 %
15.11.2025 16:28 12,5 °C 11,7 °C 8,3 °C 99 % 1008,2 hPa 0,0 l/m² 0 min 0 min 7 W/m² 3,2 km/h (1 Bft) 94,87 %
15.11.2025 16:30 12,5 °C 11,7 °C 8,3 °C 99 % 1008,3 hPa 0,0 l/m² 0 min 0 min 5 W/m² 3,2 km/h (1 Bft) 96,23 %
15.11.2025 16:32 12,5 °C 11,7 °C 8,3 °C 99 % 1008,3 hPa 0,0 l/m² 0 min 0 min 5 W/m² 0,0 km/h (0 Bft) 92,50 %
15.11.2025 16:34 12,5 °C 11,7 °C 8,3 °C 99 % 1008,3 hPa 0,0 l/m² 0 min 0 min 3 W/m² 3,2 km/h (1 Bft) 98,15 %
15.11.2025 16:36 12,5 °C 11,7 °C 8,3 °C 99 % 1008,3 hPa 0,0 l/m² 0 min 0 min 0 W/m² 0,0 km/h (0 Bft) 95,00 %
15.11.2025 16:38 12,5 °C 11,7 °C 8,3 °C 99 % 1008,3 hPa 0,0 l/m² 0 min 0 min 0 W/m² 0,0 km/h (0 Bft) 94,34 %
15.11.2025 16:40 12,4 °C 11,7 °C 8,3 °C 99 % 1008,3 hPa 0,0 l/m² 0 min 0 min 0 W/m² 6,4 km/h (2 Bft) 35,48 %
15.11.2025 16:42 12,4 °C 11,7 °C 8,3 °C 99 % 1008,3 hPa 0,0 l/m² 0 min 0 min 0 W/m² 0,0 km/h (0 Bft) 95,83 %
15.11.2025 16:44 12,4 °C 11,7 °C 8,3 °C 99 % 1008,3 hPa 0,0 l/m² 0 min 0 min 0 W/m² 0,0 km/h (0 Bft) 97,83 %
15.11.2025 16:46 12,4 °C 11,7 °C 8,3 °C 99 % 1008,3 hPa 0,0 l/m² 0 min 0 min 0 W/m² 0,0 km/h (0 Bft) 97,87 %
15.11.2025 16:48 12,4 °C 11,7 °C 8,3 °C 99 % 1008,3 hPa 0,0 l/m² 0 min 0 min 0 W/m² 0,0 km/h (0 Bft) 97,83 %
15.11.2025 16:50 12,4 °C 11,7 °C 8,3 °C 99 % 1008,3 hPa 0,0 l/m² 0 min 0 min 0 W/m² 0,0 km/h (0 Bft) 97,92 %
15.11.2025 16:52 12,3 °C 11,7 °C 8,3 °C 99 % 1008,3 hPa 0,0 l/m² 0 min 0 min 0 W/m² 0,0 km/h (0 Bft) 98,18 %
15.11.2025 16:54 12,3 °C 11,7 °C 8,3 °C 99 % 1008,2 hPa 0,0 l/m² 0 min 0 min 0 W/m² 0,0 km/h (0 Bft) 97,44 %
15.11.2025 16:56 12,3 °C 11,7 °C 8,3 °C 99 % 1008,3 hPa 0,0 l/m² 0 min 0 min 0 W/m² 6,4 km/h (2 Bft) 98,15 %
15.11.2025 16:58 12,3 °C 11,7 °C 8,3 °C 99 % 1008,3 hPa 0,0 l/m² 0 min 0 min 0 W/m² 6,4 km/h (2 Bft) 94,87 %
15.11.2025 17:00 12,3 °C 11,7 °C 8,3 °C 99 % 1008,3 hPa 0,2 l/m² 0 min 0 min 0 W/m² 0,0 km/h (0 Bft) 98,15 %
15.11.2025 17:02 12,3 °C 11,7 °C 8,3 °C 99 % 1008,3 hPa 0,0 l/m² 0 min 0 min 0 W/m² 0,0 km/h (0 Bft) 97,50 %
15.11.2025 17:04 12,3 °C 11,1 °C 7,8 °C 99 % 1008,3 hPa 0,0 l/m² 0 min 0 min 0 W/m² 3,2 km/h (1 Bft) 100,00 %
15.11.2025 17:06 12,2 °C 11,1 °C 7,8 °C 99 % 1008,4 hPa 0,0 l/m² 0 min 0 min 0 W/m² 0,0 km/h (0 Bft) 100,00 %
15.11.2025 17:08 12,2 °C 11,1 °C 7,8 °C 99 % 1008,3 hPa 0,0 l/m² 0 min 0 min 0 W/m² 0,0 km/h (0 Bft) 100,00 %
15.11.2025 17:10 12,2 °C 11,1 °C 7,8 °C 99 % 1008,3 hPa 0,0 l/m² 0 min 0 min 0 W/m² 3,2 km/h (1 Bft) 100,00 %
15.11.2025 17:12 12,2 °C 11,1 °C 7,8 °C 99 % 1008,4 hPa 0,0 l/m² 0 min 0 min 0 W/m² 3,2 km/h (1 Bft) 100,00 %
15.11.2025 17:14 12,2 °C 11,1 °C 7,8 °C 99 % 1008,4 hPa 0,0 l/m² 0 min 0 min 0 W/m² 0,0 km/h (0 Bft) 100,00 %
15.11.2025 17:16 12,1 °C 11,1 °C 7,8 °C 99 % 1008,4 hPa 0,0 l/m² 0 min 0 min 0 W/m² 0,0 km/h (0 Bft) 100,00 %
15.11.2025 17:18 12,1 °C 11,1 °C 7,8 °C 99 % 1008,4 hPa 0,0 l/m² 0 min 0 min 0 W/m² 0,0 km/h (0 Bft) 100,00 %
15.11.2025 17:20 12,1 °C 11,1 °C 7,8 °C 99 % 1008,3 hPa 0,0 l/m² 0 min 0 min 0 W/m² 0,0 km/h (0 Bft) 100,00 %
15.11.2025 17:22 12,1 °C 11,1 °C 7,8 °C 99 % 1008,3 hPa 0,0 l/m² 0 min 0 min 0 W/m² 0,0 km/h (0 Bft) 100,00 %
15.11.2025 17:24 12,1 °C 11,1 °C 7,8 °C 99 % 1008,4 hPa 0,0 l/m² 0 min 0 min 0 W/m² 0,0 km/h (0 Bft) 100,00 %
15.11.2025 17:26 12,1 °C 11,1 °C 7,8 °C 99 % 1008,3 hPa 0,0 l/m² 0 min 0 min 0 W/m² 3,2 km/h (1 Bft) 100,00 %
15.11.2025 17:28 12,1 °C 11,1 °C 7,8 °C 99 % 1008,4 hPa 0,0 l/m² 0 min 0 min 0 W/m² 3,2 km/h (1 Bft) 100,00 %
15.11.2025 17:30 12,1 °C 11,1 °C 7,8 °C 99 % 1008,4 hPa 0,0 l/m² 0 min 0 min 0 W/m² 0,0 km/h (0 Bft) 97,67 %
15.11.2025 17:32 12,1 °C 11,1 °C 7,8 °C 99 % 1008,3 hPa 0,0 l/m² 0 min 0 min 0 W/m² 0,0 km/h (0 Bft) 100,00 %
15.11.2025 17:34 12,1 °C 11,1 °C 7,8 °C 99 % 1008,3 hPa 0,0 l/m² 0 min 0 min 0 W/m² 0,0 km/h (0 Bft) 100,00 %
15.11.2025 17:36 12,0 °C 11,1 °C 7,8 °C 99 % 1008,3 hPa 0,0 l/m² 0 min 0 min 0 W/m² 0,0 km/h (0 Bft) 100,00 %
15.11.2025 17:38 12,0 °C 11,1 °C 7,8 °C 99 % 1008,3 hPa 0,0 l/m² 0 min 0 min 0 W/m² 0,0 km/h (0 Bft) 100,00 %
15.11.2025 17:40 12,0 °C 11,1 °C 7,8 °C 99 % 1008,3 hPa 0,0 l/m² 0 min 0 min 0 W/m² 0,0 km/h (0 Bft) 100,00 %
15.11.2025 17:42 12,0 °C 11,1 °C 7,8 °C 99 % 1008,3 hPa 0,0 l/m² 0 min 0 min 0 W/m² 0,0 km/h (0 Bft) 100,00 %
15.11.2025 17:44 12,0 °C 11,1 °C 7,8 °C 99 % 1008,3 hPa 0,0 l/m² 0 min 2 min 0 W/m² 0,0 km/h (0 Bft) 100,00 %
15.11.2025 17:46 12,0 °C 11,1 °C 7,8 °C 99 % 1008,3 hPa 0,0 l/m² 0 min 0 min 0 W/m² 0,0 km/h (0 Bft) 100,00 %
15.11.2025 17:48 12,0 °C 11,1 °C 7,8 °C 99 % 1008,3 hPa 0,0 l/m² 0 min 0 min 0 W/m² 0,0 km/h (0 Bft) 100,00 %
15.11.2025 17:50 11,9 °C 11,1 °C 7,8 °C 99 % 1008,3 hPa 0,0 l/m² 0 min 0 min 0 W/m² 0,0 km/h (0 Bft) 100,00 %
15.11.2025 17:52 11,9 °C 11,1 °C 7,8 °C 99 % 1008,3 hPa 0,0 l/m² 0 min 0 min 0 W/m² 0,0 km/h (0 Bft) 97,50 %
15.11.2025 17:54 11,9 °C 11,1 °C 7,8 °C 99 % 1008,4 hPa 0,0 l/m² 0 min 2 min 0 W/m² 0,0 km/h (0 Bft) 100,00 %
15.11.2025 17:56 11,9 °C 11,1 °C 7,8 °C 99 % 1008,3 hPa 0,0 l/m² 0 min 0 min 0 W/m² 0,0 km/h (0 Bft) 98,00 %
15.11.2025 17:58 11,9 °C 11,1 °C 7,8 °C 99 % 1008,4 hPa 0,0 l/m² 0 min 0 min 0 W/m² 0,0 km/h (0 Bft) 98,15 %
15.11.2025 18:00 11,9 °C 11,1 °C 7,8 °C 99 % 1008,4 hPa 0,0 l/m² 0 min 0 min 0 W/m² 0,0 km/h (0 Bft) 100,00 %
15.11.2025 18:02 11,9 °C 11,1 °C 7,8 °C 99 % 1008,4 hPa 0,0 l/m² 0 min 0 min 0 W/m² 3,2 km/h (1 Bft) 100,00 %
15.11.2025 18:04 11,9 °C 11,1 °C 7,8 °C 99 % 1008,4 hPa 0,0 l/m² 0 min 0 min 0 W/m² 3,2 km/h (1 Bft) 100,00 %
15.11.2025 18:08 11,9 °C 11,1 °C 7,8 °C 99 % 1008,5 hPa 0,0 l/m² 0 min 0 min 0 W/m² 0,0 km/h (0 Bft) 96,77 %
15.11.2025 18:10 11,9 °C 11,1 °C 7,8 °C 99 % 1008,5 hPa 0,0 l/m² 0 min 0 min 0 W/m² 3,2 km/h (1 Bft) 97,92 %
15.11.2025 18:12 11,8 °C 11,1 °C 7,8 °C 99 % 1008,6 hPa 0,0 l/m² 0 min 0 min 0 W/m² 0,0 km/h (0 Bft) 97,67 %
15.11.2025 18:14 11,8 °C 11,1 °C 7,8 °C 99 % 1008,5 hPa 0,0 l/m² 0 min 0 min 0 W/m² 0,0 km/h (0 Bft) 98,04 %
15.11.2025 18:16 11,8 °C 11,1 °C 7,8 °C 99 % 1008,5 hPa 0,0 l/m² 0 min 0 min 0 W/m² 3,2 km/h (1 Bft) 97,67 %
15.11.2025 18:18 11,8 °C 11,1 °C 7,8 °C 99 % 1008,4 hPa 0,0 l/m² 0 min 0 min 0 W/m² 3,2 km/h (1 Bft) 96,00 %
15.11.2025 18:20 11,8 °C 11,1 °C 7,8 °C 99 % 1008,4 hPa 0,0 l/m² 0 min 0 min 0 W/m² 3,2 km/h (1 Bft) 95,24 %
15.11.2025 18:22 11,8 °C 10,6 °C 7,8 °C 99 % 1008,4 hPa 0,0 l/m² 0 min 0 min 0 W/m² 6,4 km/h (2 Bft) 96,08 %
15.11.2025 18:24 11,7 °C 10,6 °C 7,8 °C 99 % 1008,4 hPa 0,2 l/m² 0 min 0 min 0 W/m² 0,0 km/h (0 Bft) 91,67 %
15.11.2025 18:26 11,7 °C 10,6 °C 7,8 °C 99 % 1008,4 hPa 0,0 l/m² 0 min 0 min 0 W/m² 3,2 km/h (1 Bft) 94,83 %
15.11.2025 18:28 11,7 °C 10,6 °C 7,8 °C 99 % 1008,4 hPa 0,0 l/m² 0 min 0 min 0 W/m² 3,2 km/h (1 Bft) 97,22 %
15.11.2025 18:30 11,6 °C 10,6 °C 7,8 °C 99 % 1008,4 hPa 0,0 l/m² 0 min 0 min 0 W/m² 0,0 km/h (0 Bft) 91,38 %
15.11.2025 18:32 11,6 °C 10,6 °C 7,8 °C 99 % 1008,4 hPa 0,0 l/m² 0 min 0 min 0 W/m² 3,2 km/h (1 Bft) 95,35 %
15.11.2025 18:34 11,6 °C 10,6 °C 7,8 °C 99 % 1008,4 hPa 0,0 l/m² 0 min 0 min 0 W/m² 3,2 km/h (1 Bft) 92,16 %
15.11.2025 18:36 11,6 °C 10,6 °C 7,2 °C 99 % 1008,5 hPa 0,0 l/m² 0 min 0 min 0 W/m² 6,4 km/h (2 Bft) 90,48 %
15.11.2025 18:38 11,6 °C 10,6 °C 7,2 °C 99 % 1008,5 hPa 0,0 l/m² 0 min 0 min 0 W/m² 3,2 km/h (1 Bft) 94,23 %
15.11.2025 18:40 11,5 °C 10,6 °C 7,2 °C 99 % 1008,5 hPa 0,0 l/m² 0 min 0 min 0 W/m² 0,0 km/h (0 Bft) 92,68 %
15.11.2025 18:42 11,5 °C 10,6 °C 7,2 °C 99 % 1008,6 hPa 0,0 l/m² 0 min 0 min 0 W/m² 6,4 km/h (2 Bft) 92,31 %
15.11.2025 18:44 11,4 °C 10,6 °C 7,2 °C 99 % 1008,5 hPa 0,0 l/m² 0 min 0 min 0 W/m² 3,2 km/h (1 Bft) 93,62 %
15.11.2025 18:46 11,4 °C 10,6 °C 7,2 °C 99 % 1008,5 hPa 0,0 l/m² 0 min 0 min 0 W/m² 0,0 km/h (0 Bft) 95,56 %
15.11.2025 18:48 11,4 °C 10,6 °C 7,2 °C 99 % 1008,5 hPa 0,0 l/m² 0 min 0 min 0 W/m² 0,0 km/h (0 Bft) 93,88 %
15.11.2025 18:50 11,4 °C 10,6 °C 7,2 °C 99 % 1008,5 hPa 0,0 l/m² 0 min 0 min 0 W/m² 0,0 km/h (0 Bft) 93,02 %
15.11.2025 18:52 11,4 °C 10,6 °C 7,2 °C 99 % 1008,5 hPa 0,0 l/m² 0 min 0 min 0 W/m² 0,0 km/h (0 Bft) 92,00 %
15.11.2025 18:54 11,4 °C 10,6 °C 7,2 °C 99 % 1008,6 hPa 0,0 l/m² 0 min 0 min 0 W/m² 0,0 km/h (0 Bft) 95,45 %
15.11.2025 18:56 11,4 °C 10,6 °C 7,2 °C 99 % 1008,6 hPa 0,0 l/m² 0 min 0 min 0 W/m² 0,0 km/h (0 Bft) 98,00 %
15.11.2025 18:58 11,4 °C 10,6 °C 7,8 °C 99 % 1008,6 hPa 0,0 l/m² 0 min 0 min 0 W/m² 0,0 km/h (0 Bft) 97,67 %
15.11.2025 19:00 11,4 °C 10,6 °C 7,8 °C 99 % 1008,6 hPa 0,0 l/m² 0 min 0 min 0 W/m² 0,0 km/h (0 Bft) 96,08 %
15.11.2025 19:02 11,4 °C 10,6 °C 7,8 °C 99 % 1008,6 hPa 0,0 l/m² 0 min 0 min 0 W/m² 0,0 km/h (0 Bft) 95,45 %
15.11.2025 19:04 11,4 °C 10,6 °C 7,8 °C 99 % 1008,6 hPa 0,0 l/m² 0 min 0 min 0 W/m² 0,0 km/h (0 Bft) 96,15 %
15.11.2025 19:06 11,4 °C 10,6 °C 7,8 °C 99 % 1008,6 hPa 0,0 l/m² 0 min 0 min 0 W/m² 0,0 km/h (0 Bft) 93,62 %
15.11.2025 19:08 11,4 °C 10,6 °C 7,2 °C 99 % 1008,6 hPa 0,0 l/m² 0 min 0 min 0 W/m² 0,0 km/h (0 Bft) 97,87 %
15.11.2025 19:10 11,4 °C 10,6 °C 7,8 °C 99 % 1008,6 hPa 0,0 l/m² 0 min 0 min 0 W/m² 0,0 km/h (0 Bft) 97,73 %
15.11.2025 19:12 11,4 °C 10,6 °C 7,8 °C 99 % 1008,6 hPa 0,0 l/m² 0 min 0 min 0 W/m² 0,0 km/h (0 Bft) 97,37 %
15.11.2025 19:14 11,4 °C 10,6 °C 7,2 °C 99 % 1008,5 hPa 0,0 l/m² 0 min 0 min 0 W/m² 0,0 km/h (0 Bft) 98,21 %
15.11.2025 19:16 11,4 °C 10,6 °C 7,2 °C 99 % 1008,6 hPa 0,0 l/m² 0 min 0 min 0 W/m² 0,0 km/h (0 Bft) 100,00 %
15.11.2025 19:18 11,4 °C 10,6 °C 7,2 °C 99 % 1008,5 hPa 0,0 l/m² 0 min 0 min 0 W/m² 0,0 km/h (0 Bft) 100,00 %
15.11.2025 19:20 11,4 °C 10,6 °C 7,2 °C 99 % 1008,5 hPa 0,0 l/m² 0 min 0 min 0 W/m² 0,0 km/h (0 Bft) 100,00 %
15.11.2025 19:22 11,4 °C 10,6 °C 7,8 °C 99 % 1008,5 hPa 0,0 l/m² 0 min 0 min 0 W/m² 0,0 km/h (0 Bft) 100,00 %
15.11.2025 19:24 11,4 °C 10,6 °C 7,2 °C 99 % 1008,5 hPa 0,0 l/m² 0 min 0 min 0 W/m² 0,0 km/h (0 Bft) 95,24 %
15.11.2025 19:26 11,4 °C 10,6 °C 7,2 °C 99 % 1008,5 hPa 0,0 l/m² 0 min 0 min 0 W/m² 0,0 km/h (0 Bft) 100,00 %
15.11.2025 19:28 11,4 °C 10,6 °C 7,2 °C 99 % 1008,5 hPa 0,0 l/m² 0 min 0 min 0 W/m² 0,0 km/h (0 Bft) 100,00 %
15.11.2025 19:30 11,3 °C 10,6 °C 7,2 °C 99 % 1008,5 hPa 0,0 l/m² 0 min 0 min 0 W/m² 3,2 km/h (1 Bft) 100,00 %
15.11.2025 19:32 11,3 °C 10,6 °C 7,2 °C 99 % 1008,4 hPa 0,0 l/m² 0 min 0 min 0 W/m² 3,2 km/h (1 Bft) 97,62 %
15.11.2025 19:34 11,3 °C 10,6 °C 7,2 °C 99 % 1008,5 hPa 0,0 l/m² 0 min 0 min 0 W/m² 3,2 km/h (1 Bft) 100,00 %
15.11.2025 19:36 11,3 °C 10,6 °C 7,2 °C 99 % 1008,4 hPa 0,0 l/m² 0 min 0 min 0 W/m² 3,2 km/h (1 Bft) 100,00 %
15.11.2025 19:38 11,3 °C 10,6 °C 7,2 °C 99 % 1008,4 hPa 0,0 l/m² 0 min 0 min 0 W/m² 3,2 km/h (1 Bft) 98,25 %
15.11.2025 19:40 11,3 °C 10,6 °C 7,2 °C 99 % 1008,4 hPa 0,0 l/m² 0 min 0 min 0 W/m² 3,2 km/h (1 Bft) 100,00 %
15.11.2025 19:42 11,3 °C 10,6 °C 7,2 °C 99 % 1008,3 hPa 0,0 l/m² 0 min 0 min 0 W/m² 3,2 km/h (1 Bft) 98,25 %
15.11.2025 19:44 11,3 °C 10,6 °C 7,2 °C 99 % 1008,3 hPa 0,0 l/m² 0 min 0 min 0 W/m² 3,2 km/h (1 Bft) 100,00 %
15.11.2025 19:46 11,3 °C 10,6 °C 7,2 °C 99 % 1008,3 hPa 0,0 l/m² 0 min 0 min 0 W/m² 3,2 km/h (1 Bft) 100,00 %
15.11.2025 19:48 11,3 °C 10,6 °C 7,2 °C 99 % 1008,3 hPa 0,0 l/m² 0 min 0 min 0 W/m² 3,2 km/h (1 Bft) 100,00 %
15.11.2025 19:50 11,3 °C 10,6 °C 7,2 °C 99 % 1008,3 hPa 0,0 l/m² 0 min 0 min 0 W/m² 0,0 km/h (0 Bft) 96,49 %
15.11.2025 19:52 11,2 °C 10,6 °C 7,2 °C 99 % 1008,3 hPa 0,0 l/m² 0 min 0 min 0 W/m² 0,0 km/h (0 Bft) 100,00 %
15.11.2025 19:54 11,2 °C 10,6 °C 7,2 °C 99 % 1008,4 hPa 0,0 l/m² 0 min 0 min 0 W/m² 3,2 km/h (1 Bft) 100,00 %
15.11.2025 19:56 11,2 °C 10,6 °C 7,2 °C 99 % 1008,4 hPa 0,0 l/m² 0 min 0 min 0 W/m² 3,2 km/h (1 Bft) 100,00 %
15.11.2025 19:58 11,2 °C 10,6 °C 7,2 °C 99 % 1008,4 hPa 0,0 l/m² 0 min 0 min 0 W/m² 0,0 km/h (0 Bft) 100,00 %
15.11.2025 20:00 11,2 °C 10,6 °C 7,2 °C 99 % 1008,4 hPa 0,0 l/m² 0 min 0 min 0 W/m² 3,2 km/h (1 Bft) 100,00 %
15.11.2025 20:02 11,2 °C 10,6 °C 7,2 °C 99 % 1008,4 hPa 0,0 l/m² 0 min 0 min 0 W/m² 0,0 km/h (0 Bft) 98,21 %
15.11.2025 20:04 11,2 °C 10,6 °C 7,2 °C 99 % 1008,3 hPa 0,0 l/m² 0 min 0 min 0 W/m² 0,0 km/h (0 Bft) 100,00 %
15.11.2025 20:06 11,2 °C 10,6 °C 7,2 °C 99 % 1008,4 hPa 0,0 l/m² 0 min 0 min 0 W/m² 0,0 km/h (0 Bft) 100,00 %
15.11.2025 20:08 11,2 °C 10,6 °C 7,2 °C 99 % 1008,4 hPa 0,0 l/m² 0 min 0 min 0 W/m² 0,0 km/h (0 Bft) 97,87 %
15.11.2025 20:10 11,2 °C 10,6 °C 7,2 °C 99 % 1008,3 hPa 0,0 l/m² 0 min 0 min 0 W/m² 0,0 km/h (0 Bft) 100,00 %
15.11.2025 20:12 11,2 °C 10,6 °C 7,2 °C 99 % 1008,3 hPa 0,0 l/m² 0 min 0 min 0 W/m² 0,0 km/h (0 Bft) 100,00 %
15.11.2025 20:14 11,2 °C 10,6 °C 7,2 °C 99 % 1008,3 hPa 0,0 l/m² 0 min 0 min 0 W/m² 0,0 km/h (0 Bft) 96,43 %
15.11.2025 20:16 11,2 °C 10,6 °C 7,2 °C 99 % 1008,3 hPa 0,0 l/m² 0 min 0 min 0 W/m² 0,0 km/h (0 Bft) 97,30 %
15.11.2025 20:18 11,2 °C 10,6 °C 7,2 °C 99 % 1008,3 hPa 0,0 l/m² 0 min 0 min 0 W/m² 0,0 km/h (0 Bft) 97,87 %
15.11.2025 20:20 11,2 °C 10,6 °C 7,2 °C 99 % 1008,3 hPa 0,0 l/m² 0 min 0 min 0 W/m² 0,0 km/h (0 Bft) 94,34 %
15.11.2025 20:22 11,2 °C 10,6 °C 7,2 °C 99 % 1008,3 hPa 0,0 l/m² 0 min 0 min 0 W/m² 0,0 km/h (0 Bft) 97,50 %
15.11.2025 20:24 11,2 °C 10,6 °C 7,2 °C 99 % 1008,3 hPa 0,0 l/m² 0 min 0 min 0 W/m² 0,0 km/h (0 Bft) 95,83 %
15.11.2025 20:26 11,2 °C 10,6 °C 7,2 °C 99 % 1008,2 hPa 0,0 l/m² 0 min 0 min 0 W/m² 0,0 km/h (0 Bft) 98,25 %
15.11.2025 20:28 11,2 °C 10,6 °C 7,2 °C 99 % 1008,2 hPa 0,0 l/m² 0 min 0 min 0 W/m² 0,0 km/h (0 Bft) 97,30 %
15.11.2025 20:30 11,2 °C 10,6 °C 7,2 °C 99 % 1008,2 hPa 0,0 l/m² 0 min 0 min 0 W/m² 0,0 km/h (0 Bft) 96,43 %
15.11.2025 20:32 11,2 °C 10,6 °C 7,2 °C 99 % 1008,3 hPa 0,0 l/m² 0 min 0 min 0 W/m² 0,0 km/h (0 Bft) 97,30 %
15.11.2025 20:34 11,2 °C 10,6 °C 7,2 °C 99 % 1008,3 hPa 0,0 l/m² 0 min 0 min 0 W/m² 0,0 km/h (0 Bft) 98,21 %
15.11.2025 20:36 11,2 °C 10,6 °C 7,2 °C 99 % 1008,3 hPa 0,0 l/m² 0 min 0 min 0 W/m² 0,0 km/h (0 Bft) 92,11 %
15.11.2025 20:38 11,2 °C 10,6 °C 7,2 °C 99 % 1008,3 hPa 0,0 l/m² 0 min 0 min 0 W/m² 0,0 km/h (0 Bft) 96,36 %
15.11.2025 20:40 11,2 °C 10,6 °C 7,2 °C 99 % 1008,3 hPa 0,0 l/m² 0 min 0 min 0 W/m² 0,0 km/h (0 Bft) 97,37 %
15.11.2025 20:42 11,2 °C 10,6 °C 7,2 °C 99 % 1008,2 hPa 0,0 l/m² 0 min 0 min 0 W/m² 0,0 km/h (0 Bft) 96,36 %
15.11.2025 20:44 11,2 °C 10,6 °C 7,2 °C 99 % 1008,3 hPa 0,0 l/m² 0 min 0 min 0 W/m² 0,0 km/h (0 Bft) 100,00 %
15.11.2025 20:46 11,2 °C 10,6 °C 7,2 °C 99 % 1008,3 hPa 0,0 l/m² 0 min 0 min 0 W/m² 0,0 km/h (0 Bft) 94,44 %
15.11.2025 20:48 11,2 °C 10,6 °C 7,2 °C 99 % 1008,3 hPa 0,0 l/m² 0 min 0 min 0 W/m² 0,0 km/h (0 Bft) 100,00 %
15.11.2025 20:50 11,2 °C 10,6 °C 7,2 °C 99 % 1008,3 hPa 0,0 l/m² 0 min 0 min 0 W/m² 0,0 km/h (0 Bft) 96,36 %
15.11.2025 20:52 11,2 °C 10,6 °C 7,2 °C 99 % 1008,2 hPa 0,0 l/m² 0 min 0 min 0 W/m² 0,0 km/h (0 Bft) 97,37 %
15.11.2025 20:54 11,3 °C 10,6 °C 7,2 °C 99 % 1008,2 hPa 0,0 l/m² 0 min 0 min 0 W/m² 3,2 km/h (1 Bft) 100,00 %
15.11.2025 20:56 11,3 °C 10,6 °C 7,2 °C 99 % 1008,2 hPa 0,0 l/m² 0 min 0 min 0 W/m² 0,0 km/h (0 Bft) 97,37 %
15.11.2025 20:58 11,3 °C 10,6 °C 7,2 °C 99 % 1008,3 hPa 0,0 l/m² 0 min 0 min 0 W/m² 0,0 km/h (0 Bft) 100,00 %
15.11.2025 21:00 11,3 °C 10,6 °C 7,2 °C 99 % 1008,3 hPa 0,0 l/m² 0 min 0 min 0 W/m² 0,0 km/h (0 Bft) 100,00 %
15.11.2025 21:02 11,3 °C 10,6 °C 7,2 °C 99 % 1008,3 hPa 0,0 l/m² 0 min 0 min 0 W/m² 0,0 km/h (0 Bft) 100,00 %
15.11.2025 21:04 11,2 °C 10,6 °C 7,2 °C 99 % 1008,3 hPa 0,0 l/m² 0 min 0 min 0 W/m² 0,0 km/h (0 Bft) 97,96 %
15.11.2025 21:08 11,2 °C 10,6 °C 7,2 °C 99 % 1008,2 hPa 0,0 l/m² 0 min 0 min 0 W/m² 0,0 km/h (0 Bft) 94,62 %
15.11.2025 21:10 11,2 °C 10,6 °C 7,2 °C 99 % 1008,1 hPa 0,0 l/m² 0 min 0 min 0 W/m² 0,0 km/h (0 Bft) 95,83 %
15.11.2025 21:12 11,2 °C 10,6 °C 7,2 °C 99 % 1008,2 hPa 0,0 l/m² 0 min 0 min 0 W/m² 0,0 km/h (0 Bft) 95,65 %
15.11.2025 21:14 11,2 °C 10,6 °C 7,2 °C 99 % 1008,2 hPa 0,0 l/m² 0 min 0 min 0 W/m² 0,0 km/h (0 Bft) 95,56 %
15.11.2025 21:16 11,2 °C 10,6 °C 7,2 °C 99 % 1008,2 hPa 0,0 l/m² 0 min 0 min 0 W/m² 0,0 km/h (0 Bft) 89,80 %
15.11.2025 21:18 11,2 °C 10,6 °C 7,2 °C 99 % 1008,3 hPa 0,0 l/m² 0 min 0 min 0 W/m² 0,0 km/h (0 Bft) 95,74 %
15.11.2025 21:20 11,2 °C 10,6 °C 7,2 °C 99 % 1008,2 hPa 0,0 l/m² 0 min 0 min 0 W/m² 0,0 km/h (0 Bft) 95,74 %
15.11.2025 21:22 11,2 °C 10,6 °C 7,2 °C 99 % 1008,3 hPa 0,0 l/m² 0 min 0 min 0 W/m² 0,0 km/h (0 Bft) 93,18 %
15.11.2025 21:24 11,2 °C 10,6 °C 7,2 °C 99 % 1008,2 hPa 0,0 l/m² 0 min 0 min 0 W/m² 0,0 km/h (0 Bft) 96,00 %
15.11.2025 21:26 11,2 °C 10,6 °C 7,2 °C 99 % 1008,2 hPa 0,0 l/m² 0 min 0 min 0 W/m² 0,0 km/h (0 Bft) 97,83 %
15.11.2025 21:28 11,2 °C 10,6 °C 7,2 °C 99 % 1008,2 hPa 0,0 l/m² 0 min 0 min 0 W/m² 0,0 km/h (0 Bft) 96,30 %
15.11.2025 21:30 11,2 °C 10,6 °C 7,2 °C 99 % 1008,2 hPa 0,0 l/m² 0 min 0 min 0 W/m² 0,0 km/h (0 Bft) 95,00 %
15.11.2025 21:32 11,2 °C 10,6 °C 7,2 °C 99 % 1008,2 hPa 0,0 l/m² 0 min 0 min 0 W/m² 0,0 km/h (0 Bft) 95,74 %
15.11.2025 21:34 11,2 °C 10,6 °C 7,2 °C 99 % 1008,2 hPa 0,0 l/m² 0 min 0 min 0 W/m² 0,0 km/h (0 Bft) 95,35 %
15.11.2025 21:36 11,2 °C 10,6 °C 7,2 °C 99 % 1008,2 hPa 0,0 l/m² 0 min 0 min 0 W/m² 0,0 km/h (0 Bft) 96,08 %
15.11.2025 21:38 11,2 °C 10,6 °C 7,2 °C 99 % 1008,1 hPa 0,0 l/m² 0 min 0 min 0 W/m² 0,0 km/h (0 Bft) 93,33 %
15.11.2025 21:40 11,2 °C 10,6 °C 7,2 °C 99 % 1008,1 hPa 0,0 l/m² 0 min 0 min 0 W/m² 0,0 km/h (0 Bft) 95,83 %
15.11.2025 21:42 11,2 °C 10,6 °C 7,2 °C 99 % 1008,1 hPa 0,0 l/m² 0 min 0 min 0 W/m² 3,2 km/h (1 Bft) 92,45 %
15.11.2025 21:44 11,2 °C 10,6 °C 7,2 °C 99 % 1008,1 hPa 0,0 l/m² 0 min 0 min 0 W/m² 3,2 km/h (1 Bft) 97,56 %
15.11.2025 21:46 11,1 °C 10,6 °C 7,2 °C 99 % 1008,1 hPa 0,0 l/m² 0 min 0 min 0 W/m² 0,0 km/h (0 Bft) 92,59 %
15.11.2025 21:48 11,1 °C 10,6 °C 7,2 °C 99 % 1008,1 hPa 0,0 l/m² 0 min 0 min 0 W/m² 0,0 km/h (0 Bft) 97,50 %
15.11.2025 21:50 11,1 °C 10,6 °C 7,2 °C 99 % 1008,1 hPa 0,0 l/m² 0 min 0 min 0 W/m² 0,0 km/h (0 Bft) 97,67 %
15.11.2025 21:52 11,1 °C 10,6 °C 7,2 °C 99 % 1008,0 hPa 0,0 l/m² 0 min 0 min 0 W/m² 0,0 km/h (0 Bft) 94,00 %
15.11.2025 21:54 11,1 °C 10,6 °C 7,2 °C 99 % 1008,1 hPa 0,0 l/m² 0 min 0 min 0 W/m² 0,0 km/h (0 Bft) 97,78 %
15.11.2025 21:56 11,1 °C 10,6 °C 7,2 °C 99 % 1008,1 hPa 0,0 l/m² 0 min 0 min 0 W/m² 0,0 km/h (0 Bft) 95,92 %
15.11.2025 21:58 11,1 °C 10,6 °C 7,2 °C 99 % 1008,1 hPa 0,0 l/m² 0 min 0 min 0 W/m² 0,0 km/h (0 Bft) 97,78 %
15.11.2025 22:00 11,1 °C 10,6 °C 7,2 °C 99 % 1008,0 hPa 0,0 l/m² 0 min 0 min 0 W/m² 0,0 km/h (0 Bft) 100,00 %
15.11.2025 22:02 11,1 °C 10,6 °C 7,2 °C 99 % 1008,1 hPa 0,0 l/m² 0 min 0 min 0 W/m² 0,0 km/h (0 Bft) 100,00 %
15.11.2025 22:04 11,1 °C 10,6 °C 7,2 °C 99 % 1008,1 hPa 0,0 l/m² 0 min 0 min 0 W/m² 3,2 km/h (1 Bft) 97,83 %
15.11.2025 22:06 11,1 °C 10,6 °C 7,2 °C 99 % 1008,0 hPa 0,0 l/m² 0 min 0 min 0 W/m² 3,2 km/h (1 Bft) 98,00 %
15.11.2025 22:08 11,1 °C 10,6 °C 7,2 °C 99 % 1008,0 hPa 0,0 l/m² 0 min 0 min 0 W/m² 3,2 km/h (1 Bft) 97,83 %
15.11.2025 22:10 11,1 °C 10,6 °C 7,2 °C 99 % 1008,0 hPa 0,0 l/m² 0 min 0 min 0 W/m² 0,0 km/h (0 Bft) 97,67 %
15.11.2025 22:12 11,1 °C 10,0 °C 7,2 °C 99 % 1008,0 hPa 0,0 l/m² 0 min 0 min 0 W/m² 0,0 km/h (0 Bft) 94,23 %
15.11.2025 22:14 11,1 °C 10,6 °C 7,2 °C 99 % 1008,0 hPa 0,0 l/m² 0 min 0 min 0 W/m² 0,0 km/h (0 Bft) 97,73 %
15.11.2025 22:16 11,1 °C 10,6 °C 7,2 °C 99 % 1008,0 hPa 0,0 l/m² 0 min 0 min 0 W/m² 0,0 km/h (0 Bft) 97,30 %
15.11.2025 22:18 11,1 °C 10,6 °C 7,2 °C 99 % 1008,0 hPa 0,0 l/m² 0 min 0 min 0 W/m² 0,0 km/h (0 Bft) 96,61 %
15.11.2025 22:20 11,1 °C 10,0 °C 7,2 °C 99 % 1008,1 hPa 0,0 l/m² 0 min 0 min 0 W/m² 0,0 km/h (0 Bft) 95,35 %
15.11.2025 22:22 11,1 °C 10,0 °C 7,2 °C 99 % 1008,0 hPa 0,0 l/m² 0 min 0 min 0 W/m² 0,0 km/h (0 Bft) 97,44 %
15.11.2025 22:24 11,1 °C 10,0 °C 7,2 °C 100 % 1008,0 hPa 0,0 l/m² 0 min 0 min 0 W/m² 0,0 km/h (0 Bft) 96,55 %
15.11.2025 22:26 11,1 °C 10,6 °C 7,2 °C 100 % 1008,0 hPa 0,0 l/m² 0 min 0 min 0 W/m² 3,2 km/h (1 Bft) 97,78 %
15.11.2025 22:28 11,1 °C 10,0 °C 7,2 °C 100 % 1008,0 hPa 0,0 l/m² 0 min 0 min 0 W/m² 0,0 km/h (0 Bft) 97,96 %
15.11.2025 22:30 11,0 °C 10,0 °C 7,2 °C 100 % 1008,0 hPa 0,0 l/m² 0 min 0 min 0 W/m² 3,2 km/h (1 Bft) 97,78 %
15.11.2025 22:32 11,0 °C 10,0 °C 7,2 °C 100 % 1007,9 hPa 0,0 l/m² 0 min 0 min 0 W/m² 3,2 km/h (1 Bft) 97,96 %
15.11.2025 22:34 11,0 °C 10,0 °C 7,2 °C 100 % 1007,9 hPa 0,0 l/m² 0 min 0 min 0 W/m² 0,0 km/h (0 Bft) 97,73 %
15.11.2025 22:36 11,0 °C 10,0 °C 7,2 °C 100 % 1007,9 hPa 0,0 l/m² 0 min 0 min 0 W/m² 3,2 km/h (1 Bft) 100,00 %
15.11.2025 22:38 11,0 °C 10,0 °C 7,2 °C 100 % 1007,9 hPa 0,0 l/m² 0 min 0 min 0 W/m² 3,2 km/h (1 Bft) 100,00 %
15.11.2025 22:40 11,0 °C 10,0 °C 7,2 °C 100 % 1008,0 hPa 0,0 l/m² 0 min 0 min 0 W/m² 0,0 km/h (0 Bft) 100,00 %
15.11.2025 22:42 11,0 °C 10,0 °C 7,2 °C 100 % 1007,9 hPa 0,0 l/m² 0 min 0 min 0 W/m² 0,0 km/h (0 Bft) 100,00 %
15.11.2025 22:44 11,0 °C 10,0 °C 7,2 °C 100 % 1007,9 hPa 0,0 l/m² 0 min 0 min 0 W/m² 3,2 km/h (1 Bft) 100,00 %
15.11.2025 22:46 11,0 °C 10,0 °C 7,2 °C 100 % 1007,9 hPa 0,0 l/m² 0 min 0 min 0 W/m² 3,2 km/h (1 Bft) 100,00 %
15.11.2025 22:48 10,9 °C 10,0 °C 7,2 °C 100 % 1008,0 hPa 0,0 l/m² 0 min 0 min 0 W/m² 3,2 km/h (1 Bft) 98,04 %
15.11.2025 22:50 10,9 °C 10,0 °C 7,2 °C 100 % 1007,9 hPa 0,0 l/m² 0 min 0 min 0 W/m² 0,0 km/h (0 Bft) 100,00 %
15.11.2025 22:52 10,9 °C 10,0 °C 7,2 °C 100 % 1007,9 hPa 0,0 l/m² 0 min 0 min 0 W/m² 0,0 km/h (0 Bft) 98,08 %
15.11.2025 22:54 10,9 °C 10,0 °C 7,2 °C 100 % 1007,9 hPa 0,0 l/m² 0 min 0 min 0 W/m² 0,0 km/h (0 Bft) 97,62 %
15.11.2025 22:56 11,0 °C 10,0 °C 7,2 °C 100 % 1007,9 hPa 0,0 l/m² 0 min 0 min 0 W/m² 0,0 km/h (0 Bft) 98,08 %
15.11.2025 22:58 10,9 °C 10,0 °C 7,2 °C 100 % 1007,8 hPa 0,0 l/m² 0 min 0 min 0 W/m² 0,0 km/h (0 Bft) 100,00 %
15.11.2025 23:00 11,0 °C 10,0 °C 7,2 °C 100 % 1007,8 hPa 0,0 l/m² 0 min 0 min 0 W/m² 3,2 km/h (1 Bft) 100,00 %
15.11.2025 23:02 11,0 °C 10,0 °C 7,2 °C 100 % 1007,8 hPa 0,0 l/m² 0 min 0 min 0 W/m² 0,0 km/h (0 Bft) 98,08 %
15.11.2025 23:04 11,0 °C 10,0 °C 7,2 °C 100 % 1007,8 hPa 0,0 l/m² 0 min 0 min 0 W/m² 3,2 km/h (1 Bft) 97,30 %
15.11.2025 23:06 11,0 °C 10,0 °C 7,2 °C 100 % 1007,8 hPa 0,0 l/m² 0 min 0 min 0 W/m² 3,2 km/h (1 Bft) 100,00 %
15.11.2025 23:08 11,0 °C 10,0 °C 7,2 °C 100 % 1007,7 hPa 0,0 l/m² 0 min 0 min 0 W/m² 0,0 km/h (0 Bft) 100,00 %
15.11.2025 23:10 11,0 °C 10,0 °C 7,2 °C 100 % 1007,7 hPa 0,0 l/m² 0 min 0 min 0 W/m² 0,0 km/h (0 Bft) 100,00 %
15.11.2025 23:12 10,9 °C 10,0 °C 7,2 °C 100 % 1007,7 hPa 0,0 l/m² 0 min 0 min 0 W/m² 0,0 km/h (0 Bft) 100,00 %
15.11.2025 23:14 10,9 °C 10,0 °C 7,2 °C 100 % 1007,6 hPa 0,0 l/m² 0 min 0 min 0 W/m² 0,0 km/h (0 Bft) 100,00 %
15.11.2025 23:16 10,9 °C 10,0 °C 7,2 °C 100 % 1007,6 hPa 0,0 l/m² 0 min 0 min 0 W/m² 0,0 km/h (0 Bft) 100,00 %
15.11.2025 23:18 11,0 °C 10,0 °C 7,2 °C 100 % 1007,6 hPa 0,0 l/m² 0 min 0 min 0 W/m² 0,0 km/h (0 Bft) 100,00 %
15.11.2025 23:20 10,9 °C 10,0 °C 7,2 °C 100 % 1007,6 hPa 0,0 l/m² 0 min 0 min 0 W/m² 3,2 km/h (1 Bft) 100,00 %
15.11.2025 23:22 10,9 °C 10,0 °C 7,2 °C 100 % 1007,6 hPa 0,0 l/m² 0 min 0 min 0 W/m² 3,2 km/h (1 Bft) 97,87 %
15.11.2025 23:24 10,9 °C 10,0 °C 7,2 °C 100 % 1007,6 hPa 0,0 l/m² 0 min 0 min 0 W/m² 6,4 km/h (2 Bft) 97,67 %
15.11.2025 23:26 10,9 °C 10,0 °C 7,2 °C 100 % 1007,6 hPa 0,0 l/m² 0 min 0 min 0 W/m² 3,2 km/h (1 Bft) 100,00 %
15.11.2025 23:28 10,9 °C 10,0 °C 7,2 °C 99 % 1007,6 hPa 0,0 l/m² 0 min 0 min 0 W/m² 3,2 km/h (1 Bft) 98,28 %
15.11.2025 23:30 10,9 °C 10,0 °C 7,2 °C 99 % 1007,6 hPa 0,0 l/m² 0 min 0 min 0 W/m² 3,2 km/h (1 Bft) 100,00 %
15.11.2025 23:32 10,9 °C 10,0 °C 7,2 °C 99 % 1007,6 hPa 0,0 l/m² 0 min 0 min 0 W/m² 3,2 km/h (1 Bft) 98,25 %
15.11.2025 23:34 10,9 °C 10,0 °C 7,2 °C 99 % 1007,6 hPa 0,0 l/m² 0 min 0 min 0 W/m² 0,0 km/h (0 Bft) 100,00 %
15.11.2025 23:36 10,9 °C 10,0 °C 7,2 °C 99 % 1007,7 hPa 0,0 l/m² 0 min 0 min 0 W/m² 0,0 km/h (0 Bft) 95,45 %
15.11.2025 23:38 10,9 °C 10,0 °C 7,2 °C 99 % 1007,6 hPa 0,0 l/m² 0 min 0 min 0 W/m² 0,0 km/h (0 Bft) 98,00 %
15.11.2025 23:40 10,9 °C 10,0 °C 7,2 °C 99 % 1007,6 hPa 0,0 l/m² 0 min 0 min 0 W/m² 3,2 km/h (1 Bft) 97,14 %
15.11.2025 23:42 10,9 °C 10,0 °C 7,2 °C 99 % 1007,6 hPa 0,0 l/m² 0 min 0 min 0 W/m² 0,0 km/h (0 Bft) 98,11 %
15.11.2025 23:44 10,9 °C 10,0 °C 7,2 °C 99 % 1007,6 hPa 0,0 l/m² 0 min 0 min 0 W/m² 0,0 km/h (0 Bft) 97,56 %
15.11.2025 23:46 10,9 °C 10,0 °C 7,2 °C 99 % 1007,6 hPa 0,0 l/m² 0 min 0 min 0 W/m² 6,4 km/h (2 Bft) 98,21 %
15.11.2025 23:48 10,9 °C 10,0 °C 7,2 °C 99 % 1007,7 hPa 0,0 l/m² 0 min 0 min 0 W/m² 0,0 km/h (0 Bft) 94,74 %
15.11.2025 23:50 10,8 °C 10,0 °C 7,2 °C 99 % 1007,7 hPa 0,0 l/m² 0 min 0 min 0 W/m² 3,2 km/h (1 Bft) 100,00 %
15.11.2025 23:52 10,8 °C 10,0 °C 7,2 °C 99 % 1007,7 hPa 0,0 l/m² 0 min 0 min 0 W/m² 0,0 km/h (0 Bft) 95,56 %
15.11.2025 23:54 10,8 °C 10,0 °C 7,2 °C 99 % 1007,7 hPa 0,0 l/m² 0 min 0 min 0 W/m² 0,0 km/h (0 Bft) 97,30 %
15.11.2025 23:56 10,8 °C 10,0 °C 7,2 °C 99 % 1007,7 hPa 0,0 l/m² 0 min 0 min 0 W/m² 0,0 km/h (0 Bft) 94,74 %
15.11.2025 23:58 10,8 °C 10,0 °C 7,2 °C 99 % 1007,6 hPa 0,0 l/m² 0 min 0 min 0 W/m² 3,2 km/h (1 Bft) 94,59 %
_ Min-Zeit 23:50 22:12 04:38 00:00 01:08 - - - - 01:14 09:06
Minimum _ 10,8 °C 10,0 °C 7,2 °C 81 % 1007,0 hPa - - - - 0,0 km/h (0 Bft) 16,67 %
_ Max-Zeit 00:07 00:00 00:00 22:24 11:16 03:08 00:00 03:08 11:02 00:28 00:04
Maximum _ 14,1 °C 13,3 °C 9,4 °C 100 % 1009,4 hPa 0,2 l/m² 0 min 4 min 110 W/m² 19,3 km/h
SO (3 Bft)
100,00 %
Durchschnitt _ 12,3 °C 11,5 °C 7,9 °C 96 % 1008,4 hPa #3,8 l/m² #0 min. #1:12 h 45 W/m² 1,6 km/h (1 Bft) 97,18 %
© 2025 W. Hausmann